<?xml version="1.0" encoding="UTF-8" standalone="no" ?>
<gpx xmlns="http://www.topografix.com/GPX/1/1" xmlns:xsi="http://www.w3.org/2001/XMLSchema-instance" xsi:schemaLocation="http://www.topografix.com/GPX/1/1 http://www.topografix.com/GPX/1/1/gpx.xsd" version="1.1" creator="VisuGPX - https://www.visugpx.com">
  <metadata>
    <name>029SG77-8209488</name>
    <desc><![CDATA[
03]]></desc>
  </metadata>
  <trk>
    <name><![CDATA[029SG77-8209488]]></name>
    <trkseg>
      <trkpt lat="46.69885" lon="-1.93386">
        <ele>5</ele>
        <time>2018-03-21T22:23:29Z</time>
      </trkpt>
      <trkpt lat="46.69906" lon="-1.93381">
        <ele>5</ele>
        <time>2018-03-21T22:24:29Z</time>
      </trkpt>
      <trkpt lat="46.6991" lon="-1.93375">
        <ele>5</ele>
        <time>2018-03-21T22:25:29Z</time>
      </trkpt>
      <trkpt lat="46.69915" lon="-1.93379">
        <ele>4</ele>
        <time>2018-03-21T22:26:29Z</time>
      </trkpt>
      <trkpt lat="46.69915" lon="-1.93381">
        <ele>4</ele>
        <time>2018-03-21T22:27:29Z</time>
      </trkpt>
      <trkpt lat="46.6994" lon="-1.9338">
        <ele>4</ele>
        <time>2018-03-21T22:28:29Z</time>
      </trkpt>
      <trkpt lat="46.69955" lon="-1.93377">
        <ele>4</ele>
        <time>2018-03-21T22:29:29Z</time>
      </trkpt>
      <trkpt lat="46.69973" lon="-1.93368">
        <ele>4</ele>
        <time>2018-03-21T22:30:29Z</time>
      </trkpt>
      <trkpt lat="46.69981" lon="-1.93367">
        <ele>3</ele>
        <time>2018-03-21T22:31:29Z</time>
      </trkpt>
      <trkpt lat="46.70018" lon="-1.93384">
        <ele>3</ele>
        <time>2018-03-21T22:32:29Z</time>
      </trkpt>
      <trkpt lat="46.70026" lon="-1.93389">
        <ele>3</ele>
        <time>2018-03-21T22:33:29Z</time>
      </trkpt>
      <trkpt lat="46.70036" lon="-1.934">
        <ele>2</ele>
        <time>2018-03-21T22:34:29Z</time>
      </trkpt>
      <trkpt lat="46.7005" lon="-1.93406">
        <ele>2</ele>
        <time>2018-03-21T22:35:29Z</time>
      </trkpt>
      <trkpt lat="46.70057" lon="-1.93396">
        <ele>2</ele>
        <time>2018-03-21T22:36:29Z</time>
      </trkpt>
      <trkpt lat="46.70064" lon="-1.93406">
        <ele>2</ele>
        <time>2018-03-21T22:37:29Z</time>
      </trkpt>
      <trkpt lat="46.70086" lon="-1.93406">
        <ele>2</ele>
        <time>2018-03-21T22:38:29Z</time>
      </trkpt>
      <trkpt lat="46.70113" lon="-1.93385">
        <ele>2</ele>
        <time>2018-03-21T22:39:29Z</time>
      </trkpt>
      <trkpt lat="46.70116" lon="-1.93375">
        <ele>2</ele>
        <time>2018-03-21T22:40:29Z</time>
      </trkpt>
      <trkpt lat="46.70124" lon="-1.93369">
        <ele>1</ele>
        <time>2018-03-21T22:41:29Z</time>
      </trkpt>
      <trkpt lat="46.70131" lon="-1.93369">
        <ele>2</ele>
        <time>2018-03-21T22:42:29Z</time>
      </trkpt>
      <trkpt lat="46.70142" lon="-1.93375">
        <ele>1</ele>
        <time>2018-03-21T22:43:29Z</time>
      </trkpt>
      <trkpt lat="46.70164" lon="-1.93377">
        <ele>1</ele>
        <time>2018-03-21T22:44:29Z</time>
      </trkpt>
      <trkpt lat="46.70166" lon="-1.93367">
        <ele>2</ele>
        <time>2018-03-21T22:45:29Z</time>
      </trkpt>
      <trkpt lat="46.70176" lon="-1.93363">
        <ele>2</ele>
        <time>2018-03-21T22:46:29Z</time>
      </trkpt>
      <trkpt lat="46.70197" lon="-1.93346">
        <ele>2</ele>
        <time>2018-03-21T22:47:29Z</time>
      </trkpt>
      <trkpt lat="46.70203" lon="-1.93339">
        <ele>2</ele>
        <time>2018-03-21T22:48:29Z</time>
      </trkpt>
      <trkpt lat="46.70205" lon="-1.93345">
        <ele>1</ele>
        <time>2018-03-21T22:49:29Z</time>
      </trkpt>
      <trkpt lat="46.70215" lon="-1.93331">
        <ele>1</ele>
        <time>2018-03-21T22:50:29Z</time>
      </trkpt>
      <trkpt lat="46.70238" lon="-1.93293">
        <ele>2</ele>
        <time>2018-03-21T22:51:29Z</time>
      </trkpt>
      <trkpt lat="46.70253" lon="-1.93277">
        <ele>2</ele>
        <time>2018-03-21T22:52:29Z</time>
      </trkpt>
      <trkpt lat="46.70278" lon="-1.93262">
        <ele>2</ele>
        <time>2018-03-21T22:53:29Z</time>
      </trkpt>
      <trkpt lat="46.70298" lon="-1.93246">
        <ele>2</ele>
        <time>2018-03-21T22:54:29Z</time>
      </trkpt>
      <trkpt lat="46.70305" lon="-1.93235">
        <ele>2</ele>
        <time>2018-03-21T22:55:29Z</time>
      </trkpt>
      <trkpt lat="46.70308" lon="-1.93226">
        <ele>2</ele>
        <time>2018-03-21T22:56:29Z</time>
      </trkpt>
      <trkpt lat="46.70389" lon="-1.93248">
        <ele>3</ele>
        <time>2018-03-21T22:57:29Z</time>
      </trkpt>
      <trkpt lat="46.70432" lon="-1.93269">
        <ele>3</ele>
        <time>2018-03-21T22:58:29Z</time>
      </trkpt>
      <trkpt lat="46.70449" lon="-1.93272">
        <ele>3</ele>
        <time>2018-03-21T22:59:29Z</time>
      </trkpt>
      <trkpt lat="46.70471" lon="-1.9327">
        <ele>3</ele>
        <time>2018-03-21T23:00:29Z</time>
      </trkpt>
      <trkpt lat="46.7054" lon="-1.93222">
        <ele>5</ele>
        <time>2018-03-21T23:01:29Z</time>
      </trkpt>
      <trkpt lat="46.70562" lon="-1.93215">
        <ele>5</ele>
        <time>2018-03-21T23:02:29Z</time>
      </trkpt>
      <trkpt lat="46.70651" lon="-1.932">
        <ele>7</ele>
        <time>2018-03-21T23:03:29Z</time>
      </trkpt>
      <trkpt lat="46.70722" lon="-1.93216">
        <ele>8</ele>
        <time>2018-03-21T23:04:29Z</time>
      </trkpt>
      <trkpt lat="46.70749" lon="-1.93214">
        <ele>8</ele>
        <time>2018-03-21T23:05:29Z</time>
      </trkpt>
      <trkpt lat="46.70773" lon="-1.93201">
        <ele>8</ele>
        <time>2018-03-21T23:06:29Z</time>
      </trkpt>
      <trkpt lat="46.70811" lon="-1.93172">
        <ele>9</ele>
        <time>2018-03-21T23:07:29Z</time>
      </trkpt>
      <trkpt lat="46.70829" lon="-1.9317">
        <ele>9</ele>
        <time>2018-03-21T23:08:29Z</time>
      </trkpt>
      <trkpt lat="46.70957" lon="-1.93188">
        <ele>7</ele>
        <time>2018-03-21T23:09:29Z</time>
      </trkpt>
      <trkpt lat="46.70997" lon="-1.93183">
        <ele>7</ele>
        <time>2018-03-21T23:10:29Z</time>
      </trkpt>
      <trkpt lat="46.70997" lon="-1.93183">
        <ele>7</ele>
        <time>2018-03-21T23:11:29Z</time>
      </trkpt>
      <trkpt lat="46.7103" lon="-1.93175">
        <ele>6</ele>
        <time>2018-03-21T23:12:29Z</time>
      </trkpt>
      <trkpt lat="46.71043" lon="-1.93165">
        <ele>7</ele>
        <time>2018-03-21T23:13:29Z</time>
      </trkpt>
      <trkpt lat="46.71142" lon="-1.9305">
        <ele>7</ele>
        <time>2018-03-21T23:14:29Z</time>
      </trkpt>
      <trkpt lat="46.71159" lon="-1.93036">
        <ele>8</ele>
        <time>2018-03-21T23:15:29Z</time>
      </trkpt>
      <trkpt lat="46.71172" lon="-1.93031">
        <ele>7</ele>
        <time>2018-03-21T23:16:29Z</time>
      </trkpt>
      <trkpt lat="46.71229" lon="-1.93029">
        <ele>5</ele>
        <time>2018-03-21T23:17:29Z</time>
      </trkpt>
      <trkpt lat="46.7124" lon="-1.93023">
        <ele>5</ele>
        <time>2018-03-21T23:18:29Z</time>
      </trkpt>
      <trkpt lat="46.71248" lon="-1.9301">
        <ele>5</ele>
        <time>2018-03-21T23:19:29Z</time>
      </trkpt>
      <trkpt lat="46.71252" lon="-1.92996">
        <ele>5</ele>
        <time>2018-03-21T23:20:29Z</time>
      </trkpt>
      <trkpt lat="46.71262" lon="-1.9294">
        <ele>4</ele>
        <time>2018-03-21T23:21:29Z</time>
      </trkpt>
      <trkpt lat="46.7127" lon="-1.92871">
        <ele>3</ele>
        <time>2018-03-21T23:22:29Z</time>
      </trkpt>
      <trkpt lat="46.71307" lon="-1.9269">
        <ele>6</ele>
        <time>2018-03-21T23:23:29Z</time>
      </trkpt>
      <trkpt lat="46.71304" lon="-1.9264">
        <ele>8</ele>
        <time>2018-03-21T23:24:29Z</time>
      </trkpt>
      <trkpt lat="46.71307" lon="-1.92619">
        <ele>8</ele>
        <time>2018-03-21T23:25:29Z</time>
      </trkpt>
      <trkpt lat="46.71331" lon="-1.92519">
        <ele>8</ele>
        <time>2018-03-21T23:26:29Z</time>
      </trkpt>
      <trkpt lat="46.71332" lon="-1.92495">
        <ele>8</ele>
        <time>2018-03-21T23:27:29Z</time>
      </trkpt>
      <trkpt lat="46.71326" lon="-1.92419">
        <ele>9</ele>
        <time>2018-03-21T23:28:29Z</time>
      </trkpt>
      <trkpt lat="46.71319" lon="-1.92381">
        <ele>9</ele>
        <time>2018-03-21T23:29:29Z</time>
      </trkpt>
      <trkpt lat="46.7131" lon="-1.92355">
        <ele>9</ele>
        <time>2018-03-21T23:30:29Z</time>
      </trkpt>
      <trkpt lat="46.71347" lon="-1.92341">
        <ele>8</ele>
        <time>2018-03-21T23:31:29Z</time>
      </trkpt>
      <trkpt lat="46.71416" lon="-1.9232">
        <ele>5</ele>
        <time>2018-03-21T23:32:29Z</time>
      </trkpt>
      <trkpt lat="46.71425" lon="-1.92312">
        <ele>5</ele>
        <time>2018-03-21T23:33:29Z</time>
      </trkpt>
      <trkpt lat="46.71428" lon="-1.92303">
        <ele>5</ele>
        <time>2018-03-21T23:34:29Z</time>
      </trkpt>
      <trkpt lat="46.71474" lon="-1.92136">
        <ele>6</ele>
        <time>2018-03-21T23:35:29Z</time>
      </trkpt>
      <trkpt lat="46.71488" lon="-1.92069">
        <ele>6</ele>
        <time>2018-03-21T23:36:29Z</time>
      </trkpt>
      <trkpt lat="46.71515" lon="-1.919">
        <ele>8</ele>
        <time>2018-03-21T23:37:29Z</time>
      </trkpt>
      <trkpt lat="46.71537" lon="-1.91824">
        <ele>8</ele>
        <time>2018-03-21T23:38:29Z</time>
      </trkpt>
      <trkpt lat="46.71567" lon="-1.91742">
        <ele>7</ele>
        <time>2018-03-21T23:39:29Z</time>
      </trkpt>
      <trkpt lat="46.71629" lon="-1.91589">
        <ele>4</ele>
        <time>2018-03-21T23:40:29Z</time>
      </trkpt>
      <trkpt lat="46.71648" lon="-1.91568">
        <ele>4</ele>
        <time>2018-03-21T23:41:29Z</time>
      </trkpt>
      <trkpt lat="46.71738" lon="-1.91523">
        <ele>2</ele>
        <time>2018-03-21T23:42:29Z</time>
      </trkpt>
      <trkpt lat="46.71756" lon="-1.91507">
        <ele>2</ele>
        <time>2018-03-21T23:43:29Z</time>
      </trkpt>
      <trkpt lat="46.71766" lon="-1.9149">
        <ele>2</ele>
        <time>2018-03-21T23:44:29Z</time>
      </trkpt>
      <trkpt lat="46.71772" lon="-1.91461">
        <ele>2</ele>
        <time>2018-03-21T23:45:29Z</time>
      </trkpt>
      <trkpt lat="46.71779" lon="-1.91389">
        <ele>1</ele>
        <time>2018-03-21T23:46:29Z</time>
      </trkpt>
      <trkpt lat="46.71785" lon="-1.91363">
        <ele>1</ele>
        <time>2018-03-21T23:47:29Z</time>
      </trkpt>
      <trkpt lat="46.71819" lon="-1.91247">
        <ele>2</ele>
        <time>2018-03-21T23:48:29Z</time>
      </trkpt>
      <trkpt lat="46.71848" lon="-1.91108">
        <ele>2</ele>
        <time>2018-03-21T23:49:29Z</time>
      </trkpt>
      <trkpt lat="46.71853" lon="-1.91062">
        <ele>2</ele>
        <time>2018-03-21T23:50:29Z</time>
      </trkpt>
      <trkpt lat="46.71851" lon="-1.9102">
        <ele>3</ele>
        <time>2018-03-21T23:51:29Z</time>
      </trkpt>
      <trkpt lat="46.7184" lon="-1.90911">
        <ele>4</ele>
        <time>2018-03-21T23:52:29Z</time>
      </trkpt>
      <trkpt lat="46.7184" lon="-1.90911">
        <ele>4</ele>
        <time>2018-03-21T23:53:29Z</time>
      </trkpt>
      <trkpt lat="46.71826" lon="-1.90788">
        <ele>6</ele>
        <time>2018-03-21T23:54:29Z</time>
      </trkpt>
      <trkpt lat="46.71796" lon="-1.9066">
        <ele>5</ele>
        <time>2018-03-21T23:55:29Z</time>
      </trkpt>
      <trkpt lat="46.71792" lon="-1.90605">
        <ele>6</ele>
        <time>2018-03-21T23:56:29Z</time>
      </trkpt>
      <trkpt lat="46.71795" lon="-1.90567">
        <ele>7</ele>
        <time>2018-03-21T23:57:29Z</time>
      </trkpt>
      <trkpt lat="46.71841" lon="-1.9045">
        <ele>5</ele>
        <time>2018-03-21T23:58:29Z</time>
      </trkpt>
      <trkpt lat="46.71849" lon="-1.90419">
        <ele>4</ele>
        <time>2018-03-21T23:59:29Z</time>
      </trkpt>
      <trkpt lat="46.71853" lon="-1.90331">
        <ele>6</ele>
        <time>2018-03-22T00:00:29Z</time>
      </trkpt>
      <trkpt lat="46.71868" lon="-1.90309">
        <ele>6</ele>
        <time>2018-03-22T00:01:29Z</time>
      </trkpt>
      <trkpt lat="46.71881" lon="-1.90264">
        <ele>7</ele>
        <time>2018-03-22T00:02:29Z</time>
      </trkpt>
      <trkpt lat="46.71886" lon="-1.90228">
        <ele>8</ele>
        <time>2018-03-22T00:03:29Z</time>
      </trkpt>
      <trkpt lat="46.71895" lon="-1.90181">
        <ele>8</ele>
        <time>2018-03-22T00:04:29Z</time>
      </trkpt>
      <trkpt lat="46.71825" lon="-1.90132">
        <ele>10</ele>
        <time>2018-03-22T00:05:29Z</time>
      </trkpt>
      <trkpt lat="46.71765" lon="-1.90081">
        <ele>11</ele>
        <time>2018-03-22T00:06:29Z</time>
      </trkpt>
      <trkpt lat="46.7161" lon="-1.89938">
        <ele>13</ele>
        <time>2018-03-22T00:07:29Z</time>
      </trkpt>
      <trkpt lat="46.71556" lon="-1.8991">
        <ele>13</ele>
        <time>2018-03-22T00:08:29Z</time>
      </trkpt>
      <trkpt lat="46.71519" lon="-1.89871">
        <ele>13</ele>
        <time>2018-03-22T00:09:29Z</time>
      </trkpt>
      <trkpt lat="46.71494" lon="-1.89835">
        <ele>13</ele>
        <time>2018-03-22T00:10:29Z</time>
      </trkpt>
      <trkpt lat="46.71385" lon="-1.89657">
        <ele>14</ele>
        <time>2018-03-22T00:11:29Z</time>
      </trkpt>
      <trkpt lat="46.71351" lon="-1.8958">
        <ele>14</ele>
        <time>2018-03-22T00:12:29Z</time>
      </trkpt>
      <trkpt lat="46.71348" lon="-1.89571">
        <ele>14</ele>
        <time>2018-03-22T00:13:29Z</time>
      </trkpt>
      <trkpt lat="46.71394" lon="-1.89536">
        <ele>15</ele>
        <time>2018-03-22T00:14:29Z</time>
      </trkpt>
      <trkpt lat="46.71429" lon="-1.89519">
        <ele>15</ele>
        <time>2018-03-22T00:15:29Z</time>
      </trkpt>
      <trkpt lat="46.71479" lon="-1.89508">
        <ele>15</ele>
        <time>2018-03-22T00:16:29Z</time>
      </trkpt>
      <trkpt lat="46.71481" lon="-1.89495">
        <ele>15</ele>
        <time>2018-03-22T00:17:29Z</time>
      </trkpt>
      <trkpt lat="46.71488" lon="-1.89488">
        <ele>15</ele>
        <time>2018-03-22T00:18:29Z</time>
      </trkpt>
      <trkpt lat="46.71489" lon="-1.89466">
        <ele>15</ele>
        <time>2018-03-22T00:19:29Z</time>
      </trkpt>
      <trkpt lat="46.71469" lon="-1.89379">
        <ele>16</ele>
        <time>2018-03-22T00:20:29Z</time>
      </trkpt>
      <trkpt lat="46.71456" lon="-1.89331">
        <ele>16</ele>
        <time>2018-03-22T00:21:29Z</time>
      </trkpt>
      <trkpt lat="46.71397" lon="-1.89163">
        <ele>18</ele>
        <time>2018-03-22T00:22:29Z</time>
      </trkpt>
      <trkpt lat="46.71342" lon="-1.89046">
        <ele>19</ele>
        <time>2018-03-22T00:23:29Z</time>
      </trkpt>
      <trkpt lat="46.71241" lon="-1.88813">
        <ele>22</ele>
        <time>2018-03-22T00:24:29Z</time>
      </trkpt>
      <trkpt lat="46.71204" lon="-1.88705">
        <ele>23</ele>
        <time>2018-03-22T00:25:29Z</time>
      </trkpt>
      <trkpt lat="46.71188" lon="-1.88651">
        <ele>23</ele>
        <time>2018-03-22T00:26:29Z</time>
      </trkpt>
      <trkpt lat="46.71129" lon="-1.88414">
        <ele>24</ele>
        <time>2018-03-22T00:27:29Z</time>
      </trkpt>
      <trkpt lat="46.71124" lon="-1.8838">
        <ele>24</ele>
        <time>2018-03-22T00:28:29Z</time>
      </trkpt>
      <trkpt lat="46.71122" lon="-1.88357">
        <ele>25</ele>
        <time>2018-03-22T00:29:29Z</time>
      </trkpt>
      <trkpt lat="46.71126" lon="-1.88237">
        <ele>26</ele>
        <time>2018-03-22T00:30:29Z</time>
      </trkpt>
      <trkpt lat="46.71124" lon="-1.88202">
        <ele>26</ele>
        <time>2018-03-22T00:31:29Z</time>
      </trkpt>
      <trkpt lat="46.71117" lon="-1.88159">
        <ele>26</ele>
        <time>2018-03-22T00:32:29Z</time>
      </trkpt>
      <trkpt lat="46.711" lon="-1.8809">
        <ele>27</ele>
        <time>2018-03-22T00:33:29Z</time>
      </trkpt>
      <trkpt lat="46.71083" lon="-1.88039">
        <ele>27</ele>
        <time>2018-03-22T00:34:29Z</time>
      </trkpt>
      <trkpt lat="46.70943" lon="-1.87665">
        <ele>29</ele>
        <time>2018-03-22T00:35:29Z</time>
      </trkpt>
      <trkpt lat="46.709" lon="-1.87555">
        <ele>30</ele>
        <time>2018-03-22T00:36:29Z</time>
      </trkpt>
      <trkpt lat="46.70875" lon="-1.87503">
        <ele>29</ele>
        <time>2018-03-22T00:37:29Z</time>
      </trkpt>
      <trkpt lat="46.70822" lon="-1.87413">
        <ele>28</ele>
        <time>2018-03-22T00:38:29Z</time>
      </trkpt>
      <trkpt lat="46.70759" lon="-1.87294">
        <ele>29</ele>
        <time>2018-03-22T00:39:29Z</time>
      </trkpt>
      <trkpt lat="46.707" lon="-1.87167">
        <ele>29</ele>
        <time>2018-03-22T00:40:29Z</time>
      </trkpt>
      <trkpt lat="46.70665" lon="-1.87106">
        <ele>29</ele>
        <time>2018-03-22T00:41:29Z</time>
      </trkpt>
      <trkpt lat="46.70576" lon="-1.86966">
        <ele>31</ele>
        <time>2018-03-22T00:42:29Z</time>
      </trkpt>
      <trkpt lat="46.70553" lon="-1.86933">
        <ele>30</ele>
        <time>2018-03-22T00:43:29Z</time>
      </trkpt>
      <trkpt lat="46.70484" lon="-1.86857">
        <ele>28</ele>
        <time>2018-03-22T00:44:29Z</time>
      </trkpt>
      <trkpt lat="46.70475" lon="-1.86844">
        <ele>28</ele>
        <time>2018-03-22T00:45:29Z</time>
      </trkpt>
      <trkpt lat="46.70469" lon="-1.86827">
        <ele>28</ele>
        <time>2018-03-22T00:46:29Z</time>
      </trkpt>
      <trkpt lat="46.70468" lon="-1.86796">
        <ele>29</ele>
        <time>2018-03-22T00:47:29Z</time>
      </trkpt>
      <trkpt lat="46.7053" lon="-1.8641">
        <ele>30</ele>
        <time>2018-03-22T00:48:29Z</time>
      </trkpt>
      <trkpt lat="46.70535" lon="-1.86352">
        <ele>29</ele>
        <time>2018-03-22T00:49:29Z</time>
      </trkpt>
      <trkpt lat="46.70533" lon="-1.8631">
        <ele>29</ele>
        <time>2018-03-22T00:50:29Z</time>
      </trkpt>
      <trkpt lat="46.70524" lon="-1.86203">
        <ele>29</ele>
        <time>2018-03-22T00:51:29Z</time>
      </trkpt>
      <trkpt lat="46.70517" lon="-1.86077">
        <ele>29</ele>
        <time>2018-03-22T00:52:29Z</time>
      </trkpt>
      <trkpt lat="46.70514" lon="-1.85882">
        <ele>28</ele>
        <time>2018-03-22T00:53:29Z</time>
      </trkpt>
      <trkpt lat="46.70496" lon="-1.85718">
        <ele>27</ele>
        <time>2018-03-22T00:54:29Z</time>
      </trkpt>
      <trkpt lat="46.70497" lon="-1.85691">
        <ele>28</ele>
        <time>2018-03-22T00:55:29Z</time>
      </trkpt>
      <trkpt lat="46.70502" lon="-1.85628">
        <ele>28</ele>
        <time>2018-03-22T00:56:29Z</time>
      </trkpt>
      <trkpt lat="46.70504" lon="-1.85575">
        <ele>27</ele>
        <time>2018-03-22T00:57:29Z</time>
      </trkpt>
      <trkpt lat="46.70501" lon="-1.85534">
        <ele>26</ele>
        <time>2018-03-22T00:58:29Z</time>
      </trkpt>
      <trkpt lat="46.70481" lon="-1.85325">
        <ele>25</ele>
        <time>2018-03-22T00:59:29Z</time>
      </trkpt>
      <trkpt lat="46.70458" lon="-1.85209">
        <ele>25</ele>
        <time>2018-03-22T01:00:29Z</time>
      </trkpt>
      <trkpt lat="46.70455" lon="-1.85182">
        <ele>24</ele>
        <time>2018-03-22T01:01:29Z</time>
      </trkpt>
      <trkpt lat="46.70466" lon="-1.84999">
        <ele>25</ele>
        <time>2018-03-22T01:02:29Z</time>
      </trkpt>
      <trkpt lat="46.70465" lon="-1.8497">
        <ele>25</ele>
        <time>2018-03-22T01:03:29Z</time>
      </trkpt>
      <trkpt lat="46.70463" lon="-1.84956">
        <ele>24</ele>
        <time>2018-03-22T01:04:29Z</time>
      </trkpt>
      <trkpt lat="46.7044" lon="-1.84881">
        <ele>23</ele>
        <time>2018-03-22T01:05:29Z</time>
      </trkpt>
      <trkpt lat="46.70427" lon="-1.84833">
        <ele>22</ele>
        <time>2018-03-22T01:06:29Z</time>
      </trkpt>
      <trkpt lat="46.70414" lon="-1.84768">
        <ele>20</ele>
        <time>2018-03-22T01:07:29Z</time>
      </trkpt>
      <trkpt lat="46.70404" lon="-1.84733">
        <ele>20</ele>
        <time>2018-03-22T01:08:29Z</time>
      </trkpt>
      <trkpt lat="46.70366" lon="-1.84637">
        <ele>19</ele>
        <time>2018-03-22T01:09:29Z</time>
      </trkpt>
      <trkpt lat="46.70312" lon="-1.84464">
        <ele>19</ele>
        <time>2018-03-22T01:10:29Z</time>
      </trkpt>
      <trkpt lat="46.70302" lon="-1.84427">
        <ele>19</ele>
        <time>2018-03-22T01:11:29Z</time>
      </trkpt>
      <trkpt lat="46.70298" lon="-1.84403">
        <ele>20</ele>
        <time>2018-03-22T01:12:29Z</time>
      </trkpt>
      <trkpt lat="46.7029" lon="-1.84292">
        <ele>21</ele>
        <time>2018-03-22T01:13:29Z</time>
      </trkpt>
      <trkpt lat="46.70283" lon="-1.84231">
        <ele>21</ele>
        <time>2018-03-22T01:14:29Z</time>
      </trkpt>
      <trkpt lat="46.70259" lon="-1.84058">
        <ele>22</ele>
        <time>2018-03-22T01:15:29Z</time>
      </trkpt>
      <trkpt lat="46.70253" lon="-1.84032">
        <ele>22</ele>
        <time>2018-03-22T01:16:29Z</time>
      </trkpt>
      <trkpt lat="46.70231" lon="-1.83961">
        <ele>22</ele>
        <time>2018-03-22T01:17:29Z</time>
      </trkpt>
      <trkpt lat="46.70219" lon="-1.83928">
        <ele>21</ele>
        <time>2018-03-22T01:18:29Z</time>
      </trkpt>
      <trkpt lat="46.70185" lon="-1.8387">
        <ele>20</ele>
        <time>2018-03-22T01:19:29Z</time>
      </trkpt>
      <trkpt lat="46.70163" lon="-1.83821">
        <ele>20</ele>
        <time>2018-03-22T01:20:29Z</time>
      </trkpt>
      <trkpt lat="46.70102" lon="-1.8366">
        <ele>19</ele>
        <time>2018-03-22T01:21:29Z</time>
      </trkpt>
      <trkpt lat="46.70053" lon="-1.83557">
        <ele>16</ele>
        <time>2018-03-22T01:22:29Z</time>
      </trkpt>
      <trkpt lat="46.70012" lon="-1.83473">
        <ele>14</ele>
        <time>2018-03-22T01:23:29Z</time>
      </trkpt>
      <trkpt lat="46.69998" lon="-1.83433">
        <ele>13</ele>
        <time>2018-03-22T01:24:29Z</time>
      </trkpt>
      <trkpt lat="46.69994" lon="-1.83413">
        <ele>12</ele>
        <time>2018-03-22T01:25:29Z</time>
      </trkpt>
      <trkpt lat="46.69986" lon="-1.83331">
        <ele>9</ele>
        <time>2018-03-22T01:26:29Z</time>
      </trkpt>
      <trkpt lat="46.6996" lon="-1.83279">
        <ele>10</ele>
        <time>2018-03-22T01:27:29Z</time>
      </trkpt>
      <trkpt lat="46.69957" lon="-1.83267">
        <ele>11</ele>
        <time>2018-03-22T01:28:29Z</time>
      </trkpt>
      <trkpt lat="46.69955" lon="-1.83256">
        <ele>11</ele>
        <time>2018-03-22T01:29:29Z</time>
      </trkpt>
      <trkpt lat="46.69957" lon="-1.83232">
        <ele>11</ele>
        <time>2018-03-22T01:30:29Z</time>
      </trkpt>
      <trkpt lat="46.69963" lon="-1.83213">
        <ele>11</ele>
        <time>2018-03-22T01:31:29Z</time>
      </trkpt>
      <trkpt lat="46.69972" lon="-1.83194">
        <ele>11</ele>
        <time>2018-03-22T01:32:29Z</time>
      </trkpt>
      <trkpt lat="46.69996" lon="-1.83168">
        <ele>11</ele>
        <time>2018-03-22T01:33:29Z</time>
      </trkpt>
      <trkpt lat="46.69999" lon="-1.83161">
        <ele>11</ele>
        <time>2018-03-22T01:34:29Z</time>
      </trkpt>
      <trkpt lat="46.70017" lon="-1.83169">
        <ele>11</ele>
        <time>2018-03-22T01:35:29Z</time>
      </trkpt>
      <trkpt lat="46.70025" lon="-1.83168">
        <ele>11</ele>
        <time>2018-03-22T01:36:29Z</time>
      </trkpt>
      <trkpt lat="46.70072" lon="-1.83122">
        <ele>11</ele>
        <time>2018-03-22T01:37:29Z</time>
      </trkpt>
      <trkpt lat="46.70081" lon="-1.83088">
        <ele>11</ele>
        <time>2018-03-22T01:38:29Z</time>
      </trkpt>
      <trkpt lat="46.70068" lon="-1.8306">
        <ele>12</ele>
        <time>2018-03-22T01:39:29Z</time>
      </trkpt>
      <trkpt lat="46.70068" lon="-1.8306">
        <ele>12</ele>
        <time>2018-03-22T01:40:29Z</time>
      </trkpt>
      <trkpt lat="46.70017" lon="-1.82951">
        <ele>17</ele>
        <time>2018-03-22T01:41:29Z</time>
      </trkpt>
      <trkpt lat="46.70241" lon="-1.82795">
        <ele>20</ele>
        <time>2018-03-22T01:42:29Z</time>
      </trkpt>
      <trkpt lat="46.70489" lon="-1.82627">
        <ele>23</ele>
        <time>2018-03-22T01:43:29Z</time>
      </trkpt>
      <trkpt lat="46.7074" lon="-1.82462">
        <ele>22</ele>
        <time>2018-03-22T01:44:29Z</time>
      </trkpt>
      <trkpt lat="46.70761" lon="-1.82432">
        <ele>23</ele>
        <time>2018-03-22T01:45:29Z</time>
      </trkpt>
      <trkpt lat="46.70836" lon="-1.82286">
        <ele>23</ele>
        <time>2018-03-22T01:46:29Z</time>
      </trkpt>
      <trkpt lat="46.70857" lon="-1.8223">
        <ele>23</ele>
        <time>2018-03-22T01:47:29Z</time>
      </trkpt>
      <trkpt lat="46.71006" lon="-1.8181">
        <ele>21</ele>
        <time>2018-03-22T01:48:29Z</time>
      </trkpt>
      <trkpt lat="46.71026" lon="-1.81775">
        <ele>21</ele>
        <time>2018-03-22T01:49:29Z</time>
      </trkpt>
      <trkpt lat="46.71059" lon="-1.81725">
        <ele>20</ele>
        <time>2018-03-22T01:50:29Z</time>
      </trkpt>
      <trkpt lat="46.71082" lon="-1.81703">
        <ele>19</ele>
        <time>2018-03-22T01:51:29Z</time>
      </trkpt>
      <trkpt lat="46.71114" lon="-1.81682">
        <ele>17</ele>
        <time>2018-03-22T01:52:29Z</time>
      </trkpt>
      <trkpt lat="46.71137" lon="-1.81682">
        <ele>16</ele>
        <time>2018-03-22T01:53:29Z</time>
      </trkpt>
      <trkpt lat="46.71201" lon="-1.81706">
        <ele>15</ele>
        <time>2018-03-22T01:54:29Z</time>
      </trkpt>
      <trkpt lat="46.71261" lon="-1.81755">
        <ele>14</ele>
        <time>2018-03-22T01:55:29Z</time>
      </trkpt>
      <trkpt lat="46.71369" lon="-1.81837">
        <ele>17</ele>
        <time>2018-03-22T01:56:29Z</time>
      </trkpt>
      <trkpt lat="46.7141" lon="-1.81862">
        <ele>19</ele>
        <time>2018-03-22T01:57:29Z</time>
      </trkpt>
      <trkpt lat="46.71434" lon="-1.81866">
        <ele>19</ele>
        <time>2018-03-22T01:58:29Z</time>
      </trkpt>
      <trkpt lat="46.71617" lon="-1.81872">
        <ele>25</ele>
        <time>2018-03-22T01:59:29Z</time>
      </trkpt>
      <trkpt lat="46.71725" lon="-1.81884">
        <ele>27</ele>
        <time>2018-03-22T02:00:29Z</time>
      </trkpt>
      <trkpt lat="46.71748" lon="-1.81891">
        <ele>28</ele>
        <time>2018-03-22T02:01:29Z</time>
      </trkpt>
      <trkpt lat="46.71796" lon="-1.81922">
        <ele>29</ele>
        <time>2018-03-22T02:02:29Z</time>
      </trkpt>
      <trkpt lat="46.71874" lon="-1.81989">
        <ele>30</ele>
        <time>2018-03-22T02:03:29Z</time>
      </trkpt>
      <trkpt lat="46.71968" lon="-1.82032">
        <ele>30</ele>
        <time>2018-03-22T02:04:29Z</time>
      </trkpt>
      <trkpt lat="46.72031" lon="-1.82029">
        <ele>30</ele>
        <time>2018-03-22T02:05:29Z</time>
      </trkpt>
      <trkpt lat="46.7215" lon="-1.82054">
        <ele>33</ele>
        <time>2018-03-22T02:06:29Z</time>
      </trkpt>
      <trkpt lat="46.72653" lon="-1.82145">
        <ele>29</ele>
        <time>2018-03-22T02:07:29Z</time>
      </trkpt>
      <trkpt lat="46.72669" lon="-1.82152">
        <ele>29</ele>
        <time>2018-03-22T02:08:29Z</time>
      </trkpt>
      <trkpt lat="46.72695" lon="-1.82169">
        <ele>29</ele>
        <time>2018-03-22T02:09:29Z</time>
      </trkpt>
      <trkpt lat="46.7272" lon="-1.82195">
        <ele>28</ele>
        <time>2018-03-22T02:10:29Z</time>
      </trkpt>
      <trkpt lat="46.72819" lon="-1.82312">
        <ele>28</ele>
        <time>2018-03-22T02:11:29Z</time>
      </trkpt>
      <trkpt lat="46.72861" lon="-1.82346">
        <ele>27</ele>
        <time>2018-03-22T02:12:29Z</time>
      </trkpt>
      <trkpt lat="46.72945" lon="-1.82396">
        <ele>27</ele>
        <time>2018-03-22T02:13:29Z</time>
      </trkpt>
      <trkpt lat="46.73026" lon="-1.82441">
        <ele>28</ele>
        <time>2018-03-22T02:14:29Z</time>
      </trkpt>
      <trkpt lat="46.73075" lon="-1.82462">
        <ele>27</ele>
        <time>2018-03-22T02:15:29Z</time>
      </trkpt>
      <trkpt lat="46.73127" lon="-1.82468">
        <ele>26</ele>
        <time>2018-03-22T02:16:29Z</time>
      </trkpt>
      <trkpt lat="46.73161" lon="-1.82467">
        <ele>26</ele>
        <time>2018-03-22T02:17:29Z</time>
      </trkpt>
      <trkpt lat="46.73244" lon="-1.82444">
        <ele>25</ele>
        <time>2018-03-22T02:18:29Z</time>
      </trkpt>
      <trkpt lat="46.73347" lon="-1.8241">
        <ele>24</ele>
        <time>2018-03-22T02:19:29Z</time>
      </trkpt>
      <trkpt lat="46.73446" lon="-1.82401">
        <ele>21</ele>
        <time>2018-03-22T02:20:29Z</time>
      </trkpt>
      <trkpt lat="46.73654" lon="-1.82394">
        <ele>14</ele>
        <time>2018-03-22T02:21:29Z</time>
      </trkpt>
      <trkpt lat="46.73666" lon="-1.82387">
        <ele>13</ele>
        <time>2018-03-22T02:22:29Z</time>
      </trkpt>
      <trkpt lat="46.73738" lon="-1.82331">
        <ele>14</ele>
        <time>2018-03-22T02:23:29Z</time>
      </trkpt>
      <trkpt lat="46.73747" lon="-1.82307">
        <ele>15</ele>
        <time>2018-03-22T02:24:29Z</time>
      </trkpt>
      <trkpt lat="46.73769" lon="-1.82239">
        <ele>16</ele>
        <time>2018-03-22T02:25:29Z</time>
      </trkpt>
      <trkpt lat="46.73775" lon="-1.82194">
        <ele>17</ele>
        <time>2018-03-22T02:26:29Z</time>
      </trkpt>
      <trkpt lat="46.73788" lon="-1.82059">
        <ele>19</ele>
        <time>2018-03-22T02:27:29Z</time>
      </trkpt>
      <trkpt lat="46.73835" lon="-1.81941">
        <ele>21</ele>
        <time>2018-03-22T02:28:29Z</time>
      </trkpt>
      <trkpt lat="46.73842" lon="-1.81916">
        <ele>21</ele>
        <time>2018-03-22T02:29:29Z</time>
      </trkpt>
      <trkpt lat="46.73864" lon="-1.81754">
        <ele>21</ele>
        <time>2018-03-22T02:30:29Z</time>
      </trkpt>
      <trkpt lat="46.73876" lon="-1.81756">
        <ele>21</ele>
        <time>2018-03-22T02:31:29Z</time>
      </trkpt>
      <trkpt lat="46.73951" lon="-1.81759">
        <ele>21</ele>
        <time>2018-03-22T02:32:29Z</time>
      </trkpt>
      <trkpt lat="46.7397" lon="-1.81756">
        <ele>22</ele>
        <time>2018-03-22T02:33:29Z</time>
      </trkpt>
      <trkpt lat="46.73976" lon="-1.81741">
        <ele>22</ele>
        <time>2018-03-22T02:34:29Z</time>
      </trkpt>
      <trkpt lat="46.73997" lon="-1.81721">
        <ele>22</ele>
        <time>2018-03-22T02:35:29Z</time>
      </trkpt>
      <trkpt lat="46.74014" lon="-1.81713">
        <ele>22</ele>
        <time>2018-03-22T02:36:29Z</time>
      </trkpt>
      <trkpt lat="46.74077" lon="-1.81704">
        <ele>20</ele>
        <time>2018-03-22T02:37:29Z</time>
      </trkpt>
      <trkpt lat="46.74073" lon="-1.81583">
        <ele>21</ele>
        <time>2018-03-22T02:38:29Z</time>
      </trkpt>
      <trkpt lat="46.74073" lon="-1.81583">
        <ele>21</ele>
        <time>2018-03-22T02:39:29Z</time>
      </trkpt>
      <trkpt lat="46.74067" lon="-1.81408">
        <ele>22</ele>
        <time>2018-03-22T02:40:29Z</time>
      </trkpt>
      <trkpt lat="46.74067" lon="-1.81367">
        <ele>23</ele>
        <time>2018-03-22T02:41:29Z</time>
      </trkpt>
      <trkpt lat="46.74071" lon="-1.81332">
        <ele>23</ele>
        <time>2018-03-22T02:42:29Z</time>
      </trkpt>
      <trkpt lat="46.74185" lon="-1.80834">
        <ele>21</ele>
        <time>2018-03-22T02:43:29Z</time>
      </trkpt>
      <trkpt lat="46.74205" lon="-1.80771">
        <ele>20</ele>
        <time>2018-03-22T02:44:29Z</time>
      </trkpt>
      <trkpt lat="46.74224" lon="-1.80735">
        <ele>19</ele>
        <time>2018-03-22T02:45:29Z</time>
      </trkpt>
      <trkpt lat="46.74562" lon="-1.80245">
        <ele>18</ele>
        <time>2018-03-22T02:46:29Z</time>
      </trkpt>
      <trkpt lat="46.74581" lon="-1.80208">
        <ele>18</ele>
        <time>2018-03-22T02:47:29Z</time>
      </trkpt>
      <trkpt lat="46.74597" lon="-1.80154">
        <ele>17</ele>
        <time>2018-03-22T02:48:29Z</time>
      </trkpt>
      <trkpt lat="46.74604" lon="-1.80102">
        <ele>17</ele>
        <time>2018-03-22T02:49:29Z</time>
      </trkpt>
      <trkpt lat="46.74617" lon="-1.79893">
        <ele>15</ele>
        <time>2018-03-22T02:50:29Z</time>
      </trkpt>
      <trkpt lat="46.74616" lon="-1.7985">
        <ele>15</ele>
        <time>2018-03-22T02:51:29Z</time>
      </trkpt>
      <trkpt lat="46.74609" lon="-1.79796">
        <ele>15</ele>
        <time>2018-03-22T02:52:29Z</time>
      </trkpt>
      <trkpt lat="46.74577" lon="-1.79603">
        <ele>15</ele>
        <time>2018-03-22T02:53:29Z</time>
      </trkpt>
      <trkpt lat="46.7456" lon="-1.79569">
        <ele>16</ele>
        <time>2018-03-22T02:54:29Z</time>
      </trkpt>
      <trkpt lat="46.74554" lon="-1.79543">
        <ele>16</ele>
        <time>2018-03-22T02:55:29Z</time>
      </trkpt>
      <trkpt lat="46.74558" lon="-1.79525">
        <ele>15</ele>
        <time>2018-03-22T02:56:29Z</time>
      </trkpt>
      <trkpt lat="46.74501" lon="-1.79426">
        <ele>17</ele>
        <time>2018-03-22T02:57:29Z</time>
      </trkpt>
      <trkpt lat="46.74468" lon="-1.79353">
        <ele>17</ele>
        <time>2018-03-22T02:58:29Z</time>
      </trkpt>
      <trkpt lat="46.74428" lon="-1.79309">
        <ele>18</ele>
        <time>2018-03-22T02:59:29Z</time>
      </trkpt>
      <trkpt lat="46.74379" lon="-1.79282">
        <ele>19</ele>
        <time>2018-03-22T03:00:29Z</time>
      </trkpt>
      <trkpt lat="46.74016" lon="-1.79168">
        <ele>23</ele>
        <time>2018-03-22T03:01:29Z</time>
      </trkpt>
      <trkpt lat="46.74022" lon="-1.79142">
        <ele>23</ele>
        <time>2018-03-22T03:02:29Z</time>
      </trkpt>
      <trkpt lat="46.74027" lon="-1.78996">
        <ele>22</ele>
        <time>2018-03-22T03:03:29Z</time>
      </trkpt>
      <trkpt lat="46.74021" lon="-1.7892">
        <ele>21</ele>
        <time>2018-03-22T03:04:29Z</time>
      </trkpt>
      <trkpt lat="46.73996" lon="-1.78834">
        <ele>18</ele>
        <time>2018-03-22T03:05:29Z</time>
      </trkpt>
      <trkpt lat="46.73964" lon="-1.78772">
        <ele>16</ele>
        <time>2018-03-22T03:06:29Z</time>
      </trkpt>
      <trkpt lat="46.73937" lon="-1.7871">
        <ele>15</ele>
        <time>2018-03-22T03:07:29Z</time>
      </trkpt>
      <trkpt lat="46.73893" lon="-1.78602">
        <ele>15</ele>
        <time>2018-03-22T03:08:29Z</time>
      </trkpt>
      <trkpt lat="46.73886" lon="-1.78589">
        <ele>15</ele>
        <time>2018-03-22T03:09:29Z</time>
      </trkpt>
      <trkpt lat="46.73867" lon="-1.78533">
        <ele>15</ele>
        <time>2018-03-22T03:10:29Z</time>
      </trkpt>
      <trkpt lat="46.73863" lon="-1.78502">
        <ele>14</ele>
        <time>2018-03-22T03:11:29Z</time>
      </trkpt>
      <trkpt lat="46.7386" lon="-1.78458">
        <ele>15</ele>
        <time>2018-03-22T03:12:29Z</time>
      </trkpt>
      <trkpt lat="46.73864" lon="-1.78423">
        <ele>16</ele>
        <time>2018-03-22T03:13:29Z</time>
      </trkpt>
      <trkpt lat="46.73872" lon="-1.78381">
        <ele>18</ele>
        <time>2018-03-22T03:14:29Z</time>
      </trkpt>
      <trkpt lat="46.73924" lon="-1.78167">
        <ele>20</ele>
        <time>2018-03-22T03:15:29Z</time>
      </trkpt>
      <trkpt lat="46.73931" lon="-1.78102">
        <ele>20</ele>
        <time>2018-03-22T03:16:29Z</time>
      </trkpt>
      <trkpt lat="46.73981" lon="-1.77474">
        <ele>17</ele>
        <time>2018-03-22T03:17:29Z</time>
      </trkpt>
      <trkpt lat="46.73996" lon="-1.77417">
        <ele>16</ele>
        <time>2018-03-22T03:18:29Z</time>
      </trkpt>
      <trkpt lat="46.74126" lon="-1.77018">
        <ele>11</ele>
        <time>2018-03-22T03:19:29Z</time>
      </trkpt>
      <trkpt lat="46.74136" lon="-1.76968">
        <ele>10</ele>
        <time>2018-03-22T03:20:29Z</time>
      </trkpt>
      <trkpt lat="46.7414" lon="-1.76908">
        <ele>11</ele>
        <time>2018-03-22T03:21:29Z</time>
      </trkpt>
      <trkpt lat="46.7414" lon="-1.76361">
        <ele>21</ele>
        <time>2018-03-22T03:22:29Z</time>
      </trkpt>
      <trkpt lat="46.74147" lon="-1.76312">
        <ele>22</ele>
        <time>2018-03-22T03:23:29Z</time>
      </trkpt>
      <trkpt lat="46.7416" lon="-1.76261">
        <ele>24</ele>
        <time>2018-03-22T03:24:29Z</time>
      </trkpt>
      <trkpt lat="46.74179" lon="-1.76215">
        <ele>23</ele>
        <time>2018-03-22T03:25:29Z</time>
      </trkpt>
      <trkpt lat="46.74237" lon="-1.76107">
        <ele>21</ele>
        <time>2018-03-22T03:26:29Z</time>
      </trkpt>
      <trkpt lat="46.74266" lon="-1.76042">
        <ele>21</ele>
        <time>2018-03-22T03:27:29Z</time>
      </trkpt>
      <trkpt lat="46.74357" lon="-1.75829">
        <ele>21</ele>
        <time>2018-03-22T03:28:29Z</time>
      </trkpt>
      <trkpt lat="46.74498" lon="-1.75492">
        <ele>23</ele>
        <time>2018-03-22T03:29:29Z</time>
      </trkpt>
      <trkpt lat="46.74498" lon="-1.75492">
        <ele>23</ele>
        <time>2018-03-22T03:30:29Z</time>
      </trkpt>
      <trkpt lat="46.74568" lon="-1.75324">
        <ele>25</ele>
        <time>2018-03-22T03:31:29Z</time>
      </trkpt>
      <trkpt lat="46.74583" lon="-1.75284">
        <ele>25</ele>
        <time>2018-03-22T03:32:29Z</time>
      </trkpt>
      <trkpt lat="46.74601" lon="-1.75212">
        <ele>25</ele>
        <time>2018-03-22T03:33:29Z</time>
      </trkpt>
      <trkpt lat="46.74626" lon="-1.75091">
        <ele>26</ele>
        <time>2018-03-22T03:34:29Z</time>
      </trkpt>
      <trkpt lat="46.74646" lon="-1.74961">
        <ele>23</ele>
        <time>2018-03-22T03:35:29Z</time>
      </trkpt>
      <trkpt lat="46.7465" lon="-1.74918">
        <ele>22</ele>
        <time>2018-03-22T03:36:29Z</time>
      </trkpt>
      <trkpt lat="46.74643" lon="-1.74855">
        <ele>24</ele>
        <time>2018-03-22T03:37:29Z</time>
      </trkpt>
      <trkpt lat="46.74594" lon="-1.74579">
        <ele>24</ele>
        <time>2018-03-22T03:38:29Z</time>
      </trkpt>
      <trkpt lat="46.74696" lon="-1.74435">
        <ele>18</ele>
        <time>2018-03-22T03:39:29Z</time>
      </trkpt>
      <trkpt lat="46.74726" lon="-1.74367">
        <ele>16</ele>
        <time>2018-03-22T03:40:29Z</time>
      </trkpt>
      <trkpt lat="46.74734" lon="-1.7433">
        <ele>15</ele>
        <time>2018-03-22T03:41:29Z</time>
      </trkpt>
      <trkpt lat="46.74739" lon="-1.74264">
        <ele>15</ele>
        <time>2018-03-22T03:42:29Z</time>
      </trkpt>
      <trkpt lat="46.7474" lon="-1.74227">
        <ele>14</ele>
        <time>2018-03-22T03:43:29Z</time>
      </trkpt>
      <trkpt lat="46.74736" lon="-1.74199">
        <ele>13</ele>
        <time>2018-03-22T03:44:29Z</time>
      </trkpt>
      <trkpt lat="46.74727" lon="-1.74171">
        <ele>13</ele>
        <time>2018-03-22T03:45:29Z</time>
      </trkpt>
      <trkpt lat="46.74737" lon="-1.74157">
        <ele>12</ele>
        <time>2018-03-22T03:46:29Z</time>
      </trkpt>
      <trkpt lat="46.74757" lon="-1.74137">
        <ele>11</ele>
        <time>2018-03-22T03:47:29Z</time>
      </trkpt>
      <trkpt lat="46.74803" lon="-1.74097">
        <ele>15</ele>
        <time>2018-03-22T03:48:29Z</time>
      </trkpt>
      <trkpt lat="46.74847" lon="-1.74083">
        <ele>18</ele>
        <time>2018-03-22T03:49:29Z</time>
      </trkpt>
      <trkpt lat="46.74929" lon="-1.74046">
        <ele>25</ele>
        <time>2018-03-22T03:50:29Z</time>
      </trkpt>
      <trkpt lat="46.74929" lon="-1.74046">
        <ele>25</ele>
        <time>2018-03-22T03:51:29Z</time>
      </trkpt>
      <trkpt lat="46.7496" lon="-1.74025">
        <ele>27</ele>
        <time>2018-03-22T03:52:29Z</time>
      </trkpt>
      <trkpt lat="46.7497" lon="-1.74011">
        <ele>27</ele>
        <time>2018-03-22T03:53:29Z</time>
      </trkpt>
      <trkpt lat="46.74938" lon="-1.73964">
        <ele>28</ele>
        <time>2018-03-22T03:54:29Z</time>
      </trkpt>
      <trkpt lat="46.74926" lon="-1.73959">
        <ele>28</ele>
        <time>2018-03-22T03:55:29Z</time>
      </trkpt>
      <trkpt lat="46.74913" lon="-1.73957">
        <ele>28</ele>
        <time>2018-03-22T03:56:29Z</time>
      </trkpt>
      <trkpt lat="46.74899" lon="-1.73947">
        <ele>28</ele>
        <time>2018-03-22T03:57:29Z</time>
      </trkpt>
      <trkpt lat="46.74868" lon="-1.73886">
        <ele>30</ele>
        <time>2018-03-22T03:58:29Z</time>
      </trkpt>
      <trkpt lat="46.74861" lon="-1.73867">
        <ele>30</ele>
        <time>2018-03-22T03:59:29Z</time>
      </trkpt>
      <trkpt lat="46.74885" lon="-1.73846">
        <ele>32</ele>
        <time>2018-03-22T04:00:29Z</time>
      </trkpt>
      <trkpt lat="46.74906" lon="-1.73839">
        <ele>33</ele>
        <time>2018-03-22T04:01:29Z</time>
      </trkpt>
      <trkpt lat="46.74935" lon="-1.73841">
        <ele>35</ele>
        <time>2018-03-22T04:02:29Z</time>
      </trkpt>
      <trkpt lat="46.74935" lon="-1.73841">
        <ele>35</ele>
        <time>2018-03-22T04:03:29Z</time>
      </trkpt>
      <trkpt lat="46.75034" lon="-1.7385">
        <ele>39</ele>
        <time>2018-03-22T04:04:29Z</time>
      </trkpt>
      <trkpt lat="46.75116" lon="-1.73839">
        <ele>43</ele>
        <time>2018-03-22T04:05:29Z</time>
      </trkpt>
      <trkpt lat="46.75138" lon="-1.73838">
        <ele>45</ele>
        <time>2018-03-22T04:06:29Z</time>
      </trkpt>
      <trkpt lat="46.75158" lon="-1.73842">
        <ele>45</ele>
        <time>2018-03-22T04:07:29Z</time>
      </trkpt>
      <trkpt lat="46.752" lon="-1.73865">
        <ele>46</ele>
        <time>2018-03-22T04:08:29Z</time>
      </trkpt>
      <trkpt lat="46.75205" lon="-1.73871">
        <ele>46</ele>
        <time>2018-03-22T04:09:29Z</time>
      </trkpt>
      <trkpt lat="46.75219" lon="-1.73849">
        <ele>47</ele>
        <time>2018-03-22T04:10:29Z</time>
      </trkpt>
      <trkpt lat="46.75262" lon="-1.7376">
        <ele>50</ele>
        <time>2018-03-22T04:11:29Z</time>
      </trkpt>
      <trkpt lat="46.75296" lon="-1.73701">
        <ele>51</ele>
        <time>2018-03-22T04:12:29Z</time>
      </trkpt>
      <trkpt lat="46.75327" lon="-1.73665">
        <ele>52</ele>
        <time>2018-03-22T04:13:29Z</time>
      </trkpt>
      <trkpt lat="46.75507" lon="-1.73481">
        <ele>56</ele>
        <time>2018-03-22T04:14:29Z</time>
      </trkpt>
      <trkpt lat="46.75528" lon="-1.73455">
        <ele>56</ele>
        <time>2018-03-22T04:15:29Z</time>
      </trkpt>
      <trkpt lat="46.75552" lon="-1.73409">
        <ele>56</ele>
        <time>2018-03-22T04:16:29Z</time>
      </trkpt>
      <trkpt lat="46.75566" lon="-1.73365">
        <ele>56</ele>
        <time>2018-03-22T04:17:29Z</time>
      </trkpt>
      <trkpt lat="46.75602" lon="-1.73194">
        <ele>54</ele>
        <time>2018-03-22T04:18:29Z</time>
      </trkpt>
      <trkpt lat="46.75618" lon="-1.73092">
        <ele>53</ele>
        <time>2018-03-22T04:19:29Z</time>
      </trkpt>
      <trkpt lat="46.75611" lon="-1.73086">
        <ele>53</ele>
        <time>2018-03-22T04:20:29Z</time>
      </trkpt>
      <trkpt lat="46.75609" lon="-1.73074">
        <ele>53</ele>
        <time>2018-03-22T04:21:29Z</time>
      </trkpt>
      <trkpt lat="46.75613" lon="-1.73064">
        <ele>53</ele>
        <time>2018-03-22T04:22:29Z</time>
      </trkpt>
      <trkpt lat="46.75621" lon="-1.7306">
        <ele>54</ele>
        <time>2018-03-22T04:23:29Z</time>
      </trkpt>
      <trkpt lat="46.75622" lon="-1.72829">
        <ele>57</ele>
        <time>2018-03-22T04:24:29Z</time>
      </trkpt>
      <trkpt lat="46.75636" lon="-1.72642">
        <ele>56</ele>
        <time>2018-03-22T04:25:29Z</time>
      </trkpt>
      <trkpt lat="46.75653" lon="-1.72483">
        <ele>56</ele>
        <time>2018-03-22T04:26:29Z</time>
      </trkpt>
      <trkpt lat="46.7566" lon="-1.72395">
        <ele>56</ele>
        <time>2018-03-22T04:27:29Z</time>
      </trkpt>
      <trkpt lat="46.75656" lon="-1.72156">
        <ele>58</ele>
        <time>2018-03-22T04:28:29Z</time>
      </trkpt>
      <trkpt lat="46.75633" lon="-1.71928">
        <ele>56</ele>
        <time>2018-03-22T04:29:29Z</time>
      </trkpt>
      <trkpt lat="46.75631" lon="-1.71773">
        <ele>57</ele>
        <time>2018-03-22T04:30:29Z</time>
      </trkpt>
      <trkpt lat="46.75634" lon="-1.7166">
        <ele>57</ele>
        <time>2018-03-22T04:31:29Z</time>
      </trkpt>
      <trkpt lat="46.75653" lon="-1.71384">
        <ele>60</ele>
        <time>2018-03-22T04:32:29Z</time>
      </trkpt>
      <trkpt lat="46.75659" lon="-1.71231">
        <ele>60</ele>
        <time>2018-03-22T04:33:29Z</time>
      </trkpt>
      <trkpt lat="46.75661" lon="-1.71135">
        <ele>60</ele>
        <time>2018-03-22T04:34:29Z</time>
      </trkpt>
      <trkpt lat="46.75661" lon="-1.71043">
        <ele>59</ele>
        <time>2018-03-22T04:35:29Z</time>
      </trkpt>
      <trkpt lat="46.75652" lon="-1.70786">
        <ele>61</ele>
        <time>2018-03-22T04:36:29Z</time>
      </trkpt>
      <trkpt lat="46.75654" lon="-1.70674">
        <ele>59</ele>
        <time>2018-03-22T04:37:29Z</time>
      </trkpt>
      <trkpt lat="46.75663" lon="-1.70445">
        <ele>61</ele>
        <time>2018-03-22T04:38:29Z</time>
      </trkpt>
      <trkpt lat="46.75671" lon="-1.70284">
        <ele>61</ele>
        <time>2018-03-22T04:39:29Z</time>
      </trkpt>
      <trkpt lat="46.75667" lon="-1.70205">
        <ele>62</ele>
        <time>2018-03-22T04:40:29Z</time>
      </trkpt>
      <trkpt lat="46.75649" lon="-1.69984">
        <ele>61</ele>
        <time>2018-03-22T04:41:29Z</time>
      </trkpt>
      <trkpt lat="46.75645" lon="-1.69968">
        <ele>61</ele>
        <time>2018-03-22T04:42:29Z</time>
      </trkpt>
      <trkpt lat="46.7563" lon="-1.69932">
        <ele>61</ele>
        <time>2018-03-22T04:43:29Z</time>
      </trkpt>
      <trkpt lat="46.7562" lon="-1.69896">
        <ele>60</ele>
        <time>2018-03-22T04:44:29Z</time>
      </trkpt>
      <trkpt lat="46.75606" lon="-1.69816">
        <ele>59</ele>
        <time>2018-03-22T04:45:29Z</time>
      </trkpt>
      <trkpt lat="46.75574" lon="-1.6962">
        <ele>58</ele>
        <time>2018-03-22T04:46:29Z</time>
      </trkpt>
      <trkpt lat="46.75574" lon="-1.6962">
        <ele>58</ele>
        <time>2018-03-22T04:47:29Z</time>
      </trkpt>
      <trkpt lat="46.75564" lon="-1.69566">
        <ele>58</ele>
        <time>2018-03-22T04:48:29Z</time>
      </trkpt>
      <trkpt lat="46.75543" lon="-1.6948">
        <ele>56</ele>
        <time>2018-03-22T04:49:29Z</time>
      </trkpt>
      <trkpt lat="46.75474" lon="-1.6926">
        <ele>55</ele>
        <time>2018-03-22T04:50:29Z</time>
      </trkpt>
      <trkpt lat="46.75453" lon="-1.69204">
        <ele>54</ele>
        <time>2018-03-22T04:51:29Z</time>
      </trkpt>
      <trkpt lat="46.75392" lon="-1.69063">
        <ele>49</ele>
        <time>2018-03-22T04:52:29Z</time>
      </trkpt>
      <trkpt lat="46.75384" lon="-1.69035">
        <ele>49</ele>
        <time>2018-03-22T04:53:29Z</time>
      </trkpt>
      <trkpt lat="46.75382" lon="-1.69017">
        <ele>48</ele>
        <time>2018-03-22T04:54:29Z</time>
      </trkpt>
      <trkpt lat="46.75381" lon="-1.68989">
        <ele>48</ele>
        <time>2018-03-22T04:55:29Z</time>
      </trkpt>
      <trkpt lat="46.75383" lon="-1.68968">
        <ele>47</ele>
        <time>2018-03-22T04:56:29Z</time>
      </trkpt>
      <trkpt lat="46.7538" lon="-1.68965">
        <ele>47</ele>
        <time>2018-03-22T04:57:29Z</time>
      </trkpt>
      <trkpt lat="46.7538" lon="-1.68962">
        <ele>47</ele>
        <time>2018-03-22T04:58:29Z</time>
      </trkpt>
      <trkpt lat="46.75383" lon="-1.68959">
        <ele>47</ele>
        <time>2018-03-22T04:59:29Z</time>
      </trkpt>
      <trkpt lat="46.75405" lon="-1.68647">
        <ele>41</ele>
        <time>2018-03-22T05:00:29Z</time>
      </trkpt>
      <trkpt lat="46.75407" lon="-1.68633">
        <ele>41</ele>
        <time>2018-03-22T05:01:29Z</time>
      </trkpt>
      <trkpt lat="46.75418" lon="-1.68607">
        <ele>41</ele>
        <time>2018-03-22T05:02:29Z</time>
      </trkpt>
      <trkpt lat="46.75424" lon="-1.68599">
        <ele>41</ele>
        <time>2018-03-22T05:03:29Z</time>
      </trkpt>
      <trkpt lat="46.75437" lon="-1.68587">
        <ele>41</ele>
        <time>2018-03-22T05:04:29Z</time>
      </trkpt>
      <trkpt lat="46.75454" lon="-1.68575">
        <ele>41</ele>
        <time>2018-03-22T05:05:29Z</time>
      </trkpt>
      <trkpt lat="46.75474" lon="-1.68572">
        <ele>41</ele>
        <time>2018-03-22T05:06:29Z</time>
      </trkpt>
      <trkpt lat="46.755" lon="-1.68576">
        <ele>42</ele>
        <time>2018-03-22T05:07:29Z</time>
      </trkpt>
      <trkpt lat="46.75463" lon="-1.68297">
        <ele>37</ele>
        <time>2018-03-22T05:08:29Z</time>
      </trkpt>
      <trkpt lat="46.75428" lon="-1.68044">
        <ele>29</ele>
        <time>2018-03-22T05:09:29Z</time>
      </trkpt>
      <trkpt lat="46.75401" lon="-1.67814">
        <ele>22</ele>
        <time>2018-03-22T05:10:29Z</time>
      </trkpt>
      <trkpt lat="46.75377" lon="-1.67715">
        <ele>16</ele>
        <time>2018-03-22T05:11:29Z</time>
      </trkpt>
      <trkpt lat="46.75262" lon="-1.67503">
        <ele>14</ele>
        <time>2018-03-22T05:12:29Z</time>
      </trkpt>
      <trkpt lat="46.75229" lon="-1.67435">
        <ele>20</ele>
        <time>2018-03-22T05:13:29Z</time>
      </trkpt>
      <trkpt lat="46.75163" lon="-1.67377">
        <ele>23</ele>
        <time>2018-03-22T05:14:29Z</time>
      </trkpt>
      <trkpt lat="46.75105" lon="-1.67371">
        <ele>24</ele>
        <time>2018-03-22T05:15:29Z</time>
      </trkpt>
      <trkpt lat="46.75013" lon="-1.67435">
        <ele>22</ele>
        <time>2018-03-22T05:16:29Z</time>
      </trkpt>
      <trkpt lat="46.74619" lon="-1.67692">
        <ele>21</ele>
        <time>2018-03-22T05:17:29Z</time>
      </trkpt>
      <trkpt lat="46.74589" lon="-1.67719">
        <ele>21</ele>
        <time>2018-03-22T05:18:29Z</time>
      </trkpt>
      <trkpt lat="46.74571" lon="-1.6774">
        <ele>20</ele>
        <time>2018-03-22T05:19:29Z</time>
      </trkpt>
      <trkpt lat="46.7444" lon="-1.67937">
        <ele>29</ele>
        <time>2018-03-22T05:20:29Z</time>
      </trkpt>
      <trkpt lat="46.74395" lon="-1.68009">
        <ele>30</ele>
        <time>2018-03-22T05:21:29Z</time>
      </trkpt>
      <trkpt lat="46.74375" lon="-1.68051">
        <ele>31</ele>
        <time>2018-03-22T05:22:29Z</time>
      </trkpt>
      <trkpt lat="46.74351" lon="-1.68121">
        <ele>32</ele>
        <time>2018-03-22T05:23:29Z</time>
      </trkpt>
      <trkpt lat="46.74334" lon="-1.68154">
        <ele>32</ele>
        <time>2018-03-22T05:24:29Z</time>
      </trkpt>
      <trkpt lat="46.74325" lon="-1.68168">
        <ele>32</ele>
        <time>2018-03-22T05:25:29Z</time>
      </trkpt>
      <trkpt lat="46.74316" lon="-1.68175">
        <ele>32</ele>
        <time>2018-03-22T05:26:29Z</time>
      </trkpt>
      <trkpt lat="46.74295" lon="-1.68185">
        <ele>32</ele>
        <time>2018-03-22T05:27:29Z</time>
      </trkpt>
      <trkpt lat="46.74261" lon="-1.68192">
        <ele>32</ele>
        <time>2018-03-22T05:28:29Z</time>
      </trkpt>
      <trkpt lat="46.74109" lon="-1.68221">
        <ele>34</ele>
        <time>2018-03-22T05:29:29Z</time>
      </trkpt>
      <trkpt lat="46.74074" lon="-1.68223">
        <ele>34</ele>
        <time>2018-03-22T05:30:29Z</time>
      </trkpt>
      <trkpt lat="46.74041" lon="-1.68217">
        <ele>35</ele>
        <time>2018-03-22T05:31:29Z</time>
      </trkpt>
      <trkpt lat="46.73919" lon="-1.68179">
        <ele>36</ele>
        <time>2018-03-22T05:32:29Z</time>
      </trkpt>
      <trkpt lat="46.73887" lon="-1.68173">
        <ele>36</ele>
        <time>2018-03-22T05:33:29Z</time>
      </trkpt>
      <trkpt lat="46.73858" lon="-1.68175">
        <ele>37</ele>
        <time>2018-03-22T05:34:29Z</time>
      </trkpt>
      <trkpt lat="46.73833" lon="-1.68183">
        <ele>37</ele>
        <time>2018-03-22T05:35:29Z</time>
      </trkpt>
      <trkpt lat="46.73598" lon="-1.68279">
        <ele>40</ele>
        <time>2018-03-22T05:36:29Z</time>
      </trkpt>
      <trkpt lat="46.73576" lon="-1.68286">
        <ele>40</ele>
        <time>2018-03-22T05:37:29Z</time>
      </trkpt>
      <trkpt lat="46.73543" lon="-1.6829">
        <ele>39</ele>
        <time>2018-03-22T05:38:29Z</time>
      </trkpt>
      <trkpt lat="46.73391" lon="-1.6829">
        <ele>41</ele>
        <time>2018-03-22T05:39:29Z</time>
      </trkpt>
      <trkpt lat="46.73136" lon="-1.68287">
        <ele>47</ele>
        <time>2018-03-22T05:40:29Z</time>
      </trkpt>
      <trkpt lat="46.73124" lon="-1.68288">
        <ele>47</ele>
        <time>2018-03-22T05:41:29Z</time>
      </trkpt>
      <trkpt lat="46.72892" lon="-1.68335">
        <ele>48</ele>
        <time>2018-03-22T05:42:29Z</time>
      </trkpt>
      <trkpt lat="46.72869" lon="-1.68338">
        <ele>48</ele>
        <time>2018-03-22T05:43:29Z</time>
      </trkpt>
      <trkpt lat="46.72838" lon="-1.68338">
        <ele>48</ele>
        <time>2018-03-22T05:44:29Z</time>
      </trkpt>
      <trkpt lat="46.72823" lon="-1.68335">
        <ele>48</ele>
        <time>2018-03-22T05:45:29Z</time>
      </trkpt>
      <trkpt lat="46.72783" lon="-1.68323">
        <ele>48</ele>
        <time>2018-03-22T05:46:29Z</time>
      </trkpt>
      <trkpt lat="46.72587" lon="-1.68251">
        <ele>49</ele>
        <time>2018-03-22T05:47:29Z</time>
      </trkpt>
      <trkpt lat="46.72547" lon="-1.68239">
        <ele>49</ele>
        <time>2018-03-22T05:48:29Z</time>
      </trkpt>
      <trkpt lat="46.72516" lon="-1.68236">
        <ele>50</ele>
        <time>2018-03-22T05:49:29Z</time>
      </trkpt>
      <trkpt lat="46.72395" lon="-1.68234">
        <ele>51</ele>
        <time>2018-03-22T05:50:29Z</time>
      </trkpt>
      <trkpt lat="46.72383" lon="-1.68232">
        <ele>51</ele>
        <time>2018-03-22T05:51:29Z</time>
      </trkpt>
      <trkpt lat="46.72372" lon="-1.68227">
        <ele>51</ele>
        <time>2018-03-22T05:52:29Z</time>
      </trkpt>
      <trkpt lat="46.72353" lon="-1.68214">
        <ele>50</ele>
        <time>2018-03-22T05:53:29Z</time>
      </trkpt>
      <trkpt lat="46.72339" lon="-1.68199">
        <ele>50</ele>
        <time>2018-03-22T05:54:29Z</time>
      </trkpt>
      <trkpt lat="46.72321" lon="-1.68171">
        <ele>49</ele>
        <time>2018-03-22T05:55:29Z</time>
      </trkpt>
      <trkpt lat="46.72043" lon="-1.67682">
        <ele>50</ele>
        <time>2018-03-22T05:56:29Z</time>
      </trkpt>
      <trkpt lat="46.72043" lon="-1.67682">
        <ele>50</ele>
        <time>2018-03-22T05:57:29Z</time>
      </trkpt>
      <trkpt lat="46.71891" lon="-1.67415">
        <ele>52</ele>
        <time>2018-03-22T05:58:29Z</time>
      </trkpt>
      <trkpt lat="46.71636" lon="-1.67191">
        <ele>47</ele>
        <time>2018-03-22T05:59:29Z</time>
      </trkpt>
      <trkpt lat="46.71475" lon="-1.67053">
        <ele>51</ele>
        <time>2018-03-22T06:00:29Z</time>
      </trkpt>
      <trkpt lat="46.71162" lon="-1.668">
        <ele>40</ele>
        <time>2018-03-22T06:01:29Z</time>
      </trkpt>
      <trkpt lat="46.71061" lon="-1.66723">
        <ele>39</ele>
        <time>2018-03-22T06:02:29Z</time>
      </trkpt>
      <trkpt lat="46.70619" lon="-1.66371">
        <ele>42</ele>
        <time>2018-03-22T06:03:29Z</time>
      </trkpt>
      <trkpt lat="46.70522" lon="-1.66305">
        <ele>42</ele>
        <time>2018-03-22T06:04:29Z</time>
      </trkpt>
      <trkpt lat="46.70432" lon="-1.66188">
        <ele>39</ele>
        <time>2018-03-22T06:05:29Z</time>
      </trkpt>
      <trkpt lat="46.70225" lon="-1.65845">
        <ele>42</ele>
        <time>2018-03-22T06:06:29Z</time>
      </trkpt>
      <trkpt lat="46.70153" lon="-1.65737">
        <ele>43</ele>
        <time>2018-03-22T06:07:29Z</time>
      </trkpt>
      <trkpt lat="46.70051" lon="-1.65865">
        <ele>46</ele>
        <time>2018-03-22T06:08:29Z</time>
      </trkpt>
      <trkpt lat="46.69627" lon="-1.66362">
        <ele>40</ele>
        <time>2018-03-22T06:09:29Z</time>
      </trkpt>
      <trkpt lat="46.69618" lon="-1.66369">
        <ele>40</ele>
        <time>2018-03-22T06:10:29Z</time>
      </trkpt>
      <trkpt lat="46.69582" lon="-1.6638">
        <ele>38</ele>
        <time>2018-03-22T06:11:29Z</time>
      </trkpt>
      <trkpt lat="46.69412" lon="-1.66367">
        <ele>35</ele>
        <time>2018-03-22T06:12:29Z</time>
      </trkpt>
      <trkpt lat="46.6931" lon="-1.66382">
        <ele>32</ele>
        <time>2018-03-22T06:13:29Z</time>
      </trkpt>
      <trkpt lat="46.69275" lon="-1.66383">
        <ele>31</ele>
        <time>2018-03-22T06:14:29Z</time>
      </trkpt>
      <trkpt lat="46.69229" lon="-1.66369">
        <ele>30</ele>
        <time>2018-03-22T06:15:29Z</time>
      </trkpt>
      <trkpt lat="46.69194" lon="-1.6634">
        <ele>29</ele>
        <time>2018-03-22T06:16:29Z</time>
      </trkpt>
      <trkpt lat="46.69144" lon="-1.66306">
        <ele>26</ele>
        <time>2018-03-22T06:17:29Z</time>
      </trkpt>
      <trkpt lat="46.69108" lon="-1.66298">
        <ele>24</ele>
        <time>2018-03-22T06:18:29Z</time>
      </trkpt>
      <trkpt lat="46.69048" lon="-1.6633">
        <ele>22</ele>
        <time>2018-03-22T06:19:29Z</time>
      </trkpt>
      <trkpt lat="46.6903" lon="-1.66343">
        <ele>22</ele>
        <time>2018-03-22T06:20:29Z</time>
      </trkpt>
      <trkpt lat="46.69009" lon="-1.66367">
        <ele>22</ele>
        <time>2018-03-22T06:21:29Z</time>
      </trkpt>
      <trkpt lat="46.68911" lon="-1.6658">
        <ele>25</ele>
        <time>2018-03-22T06:22:29Z</time>
      </trkpt>
      <trkpt lat="46.68884" lon="-1.6661">
        <ele>27</ele>
        <time>2018-03-22T06:23:29Z</time>
      </trkpt>
      <trkpt lat="46.68738" lon="-1.66738">
        <ele>34</ele>
        <time>2018-03-22T06:24:29Z</time>
      </trkpt>
      <trkpt lat="46.68592" lon="-1.66852">
        <ele>35</ele>
        <time>2018-03-22T06:25:29Z</time>
      </trkpt>
      <trkpt lat="46.68431" lon="-1.66984">
        <ele>33</ele>
        <time>2018-03-22T06:26:29Z</time>
      </trkpt>
      <trkpt lat="46.68229" lon="-1.67322">
        <ele>35</ele>
        <time>2018-03-22T06:27:29Z</time>
      </trkpt>
      <trkpt lat="46.68192" lon="-1.67394">
        <ele>34</ele>
        <time>2018-03-22T06:28:29Z</time>
      </trkpt>
      <trkpt lat="46.68183" lon="-1.6744">
        <ele>33</ele>
        <time>2018-03-22T06:29:29Z</time>
      </trkpt>
      <trkpt lat="46.68156" lon="-1.67642">
        <ele>25</ele>
        <time>2018-03-22T06:30:29Z</time>
      </trkpt>
      <trkpt lat="46.68131" lon="-1.67825">
        <ele>25</ele>
        <time>2018-03-22T06:31:29Z</time>
      </trkpt>
      <trkpt lat="46.68124" lon="-1.67861">
        <ele>26</ele>
        <time>2018-03-22T06:32:29Z</time>
      </trkpt>
      <trkpt lat="46.68116" lon="-1.67875">
        <ele>26</ele>
        <time>2018-03-22T06:33:29Z</time>
      </trkpt>
      <trkpt lat="46.68105" lon="-1.6788">
        <ele>27</ele>
        <time>2018-03-22T06:34:29Z</time>
      </trkpt>
      <trkpt lat="46.68083" lon="-1.67881">
        <ele>27</ele>
        <time>2018-03-22T06:35:29Z</time>
      </trkpt>
      <trkpt lat="46.68055" lon="-1.67873">
        <ele>28</ele>
        <time>2018-03-22T06:36:29Z</time>
      </trkpt>
      <trkpt lat="46.68034" lon="-1.67864">
        <ele>29</ele>
        <time>2018-03-22T06:37:29Z</time>
      </trkpt>
      <trkpt lat="46.68034" lon="-1.67864">
        <ele>29</ele>
        <time>2018-03-22T06:38:29Z</time>
      </trkpt>
      <trkpt lat="46.67985" lon="-1.67843">
        <ele>31</ele>
        <time>2018-03-22T06:39:29Z</time>
      </trkpt>
      <trkpt lat="46.67952" lon="-1.67825">
        <ele>30</ele>
        <time>2018-03-22T06:40:29Z</time>
      </trkpt>
      <trkpt lat="46.6789" lon="-1.67795">
        <ele>31</ele>
        <time>2018-03-22T06:41:29Z</time>
      </trkpt>
      <trkpt lat="46.67861" lon="-1.6779">
        <ele>32</ele>
        <time>2018-03-22T06:42:29Z</time>
      </trkpt>
      <trkpt lat="46.67823" lon="-1.6779">
        <ele>32</ele>
        <time>2018-03-22T06:43:29Z</time>
      </trkpt>
      <trkpt lat="46.67777" lon="-1.67805">
        <ele>32</ele>
        <time>2018-03-22T06:44:29Z</time>
      </trkpt>
      <trkpt lat="46.67751" lon="-1.67808">
        <ele>32</ele>
        <time>2018-03-22T06:45:29Z</time>
      </trkpt>
      <trkpt lat="46.6767" lon="-1.6781">
        <ele>34</ele>
        <time>2018-03-22T06:46:29Z</time>
      </trkpt>
      <trkpt lat="46.67657" lon="-1.67816">
        <ele>34</ele>
        <time>2018-03-22T06:47:29Z</time>
      </trkpt>
      <trkpt lat="46.67629" lon="-1.67837">
        <ele>36</ele>
        <time>2018-03-22T06:48:29Z</time>
      </trkpt>
      <trkpt lat="46.67634" lon="-1.67867">
        <ele>36</ele>
        <time>2018-03-22T06:49:29Z</time>
      </trkpt>
      <trkpt lat="46.67625" lon="-1.67888">
        <ele>36</ele>
        <time>2018-03-22T06:50:29Z</time>
      </trkpt>
      <trkpt lat="46.67566" lon="-1.67965">
        <ele>39</ele>
        <time>2018-03-22T06:51:29Z</time>
      </trkpt>
      <trkpt lat="46.67524" lon="-1.67994">
        <ele>41</ele>
        <time>2018-03-22T06:52:29Z</time>
      </trkpt>
      <trkpt lat="46.67463" lon="-1.68026">
        <ele>42</ele>
        <time>2018-03-22T06:53:29Z</time>
      </trkpt>
      <trkpt lat="46.67239" lon="-1.68071">
        <ele>43</ele>
        <time>2018-03-22T06:54:29Z</time>
      </trkpt>
      <trkpt lat="46.67161" lon="-1.68091">
        <ele>42</ele>
        <time>2018-03-22T06:55:29Z</time>
      </trkpt>
      <trkpt lat="46.67072" lon="-1.68127">
        <ele>43</ele>
        <time>2018-03-22T06:56:29Z</time>
      </trkpt>
      <trkpt lat="46.67006" lon="-1.6815">
        <ele>44</ele>
        <time>2018-03-22T06:57:29Z</time>
      </trkpt>
      <trkpt lat="46.66645" lon="-1.68258">
        <ele>48</ele>
        <time>2018-03-22T06:58:29Z</time>
      </trkpt>
      <trkpt lat="46.66612" lon="-1.68266">
        <ele>49</ele>
        <time>2018-03-22T06:59:29Z</time>
      </trkpt>
      <trkpt lat="46.66413" lon="-1.68288">
        <ele>51</ele>
        <time>2018-03-22T07:00:29Z</time>
      </trkpt>
      <trkpt lat="46.66388" lon="-1.68293">
        <ele>51</ele>
        <time>2018-03-22T07:01:29Z</time>
      </trkpt>
      <trkpt lat="46.66364" lon="-1.68304">
        <ele>51</ele>
        <time>2018-03-22T07:02:29Z</time>
      </trkpt>
      <trkpt lat="46.66334" lon="-1.68322">
        <ele>52</ele>
        <time>2018-03-22T07:03:29Z</time>
      </trkpt>
      <trkpt lat="46.65885" lon="-1.68963">
        <ele>53</ele>
        <time>2018-03-22T07:04:29Z</time>
      </trkpt>
      <trkpt lat="46.65833" lon="-1.69048">
        <ele>50</ele>
        <time>2018-03-22T07:05:29Z</time>
      </trkpt>
      <trkpt lat="46.65786" lon="-1.69166">
        <ele>47</ele>
        <time>2018-03-22T07:06:29Z</time>
      </trkpt>
      <trkpt lat="46.65626" lon="-1.69604">
        <ele>49</ele>
        <time>2018-03-22T07:07:29Z</time>
      </trkpt>
      <trkpt lat="46.65483" lon="-1.6999">
        <ele>56</ele>
        <time>2018-03-22T07:08:29Z</time>
      </trkpt>
      <trkpt lat="46.65447" lon="-1.70178">
        <ele>48</ele>
        <time>2018-03-22T07:09:29Z</time>
      </trkpt>
      <trkpt lat="46.65437" lon="-1.70202">
        <ele>46</ele>
        <time>2018-03-22T07:10:29Z</time>
      </trkpt>
      <trkpt lat="46.65427" lon="-1.70217">
        <ele>45</ele>
        <time>2018-03-22T07:11:29Z</time>
      </trkpt>
      <trkpt lat="46.65403" lon="-1.70237">
        <ele>42</ele>
        <time>2018-03-22T07:12:29Z</time>
      </trkpt>
      <trkpt lat="46.65351" lon="-1.70269">
        <ele>37</ele>
        <time>2018-03-22T07:13:29Z</time>
      </trkpt>
      <trkpt lat="46.6532" lon="-1.70295">
        <ele>35</ele>
        <time>2018-03-22T07:14:29Z</time>
      </trkpt>
      <trkpt lat="46.65271" lon="-1.7032">
        <ele>34</ele>
        <time>2018-03-22T07:15:29Z</time>
      </trkpt>
      <trkpt lat="46.64889" lon="-1.70381">
        <ele>43</ele>
        <time>2018-03-22T07:16:29Z</time>
      </trkpt>
      <trkpt lat="46.64804" lon="-1.70418">
        <ele>46</ele>
        <time>2018-03-22T07:17:29Z</time>
      </trkpt>
      <trkpt lat="46.64719" lon="-1.70461">
        <ele>49</ele>
        <time>2018-03-22T07:18:29Z</time>
      </trkpt>
      <trkpt lat="46.64707" lon="-1.70478">
        <ele>50</ele>
        <time>2018-03-22T07:19:29Z</time>
      </trkpt>
      <trkpt lat="46.64629" lon="-1.70536">
        <ele>53</ele>
        <time>2018-03-22T07:20:29Z</time>
      </trkpt>
      <trkpt lat="46.64592" lon="-1.70583">
        <ele>55</ele>
        <time>2018-03-22T07:21:29Z</time>
      </trkpt>
      <trkpt lat="46.64561" lon="-1.70615">
        <ele>56</ele>
        <time>2018-03-22T07:22:29Z</time>
      </trkpt>
      <trkpt lat="46.64481" lon="-1.70659">
        <ele>59</ele>
        <time>2018-03-22T07:23:29Z</time>
      </trkpt>
      <trkpt lat="46.64445" lon="-1.70683">
        <ele>59</ele>
        <time>2018-03-22T07:24:29Z</time>
      </trkpt>
      <trkpt lat="46.64408" lon="-1.70734">
        <ele>60</ele>
        <time>2018-03-22T07:25:29Z</time>
      </trkpt>
      <trkpt lat="46.64369" lon="-1.70799">
        <ele>59</ele>
        <time>2018-03-22T07:26:29Z</time>
      </trkpt>
      <trkpt lat="46.64337" lon="-1.70835">
        <ele>60</ele>
        <time>2018-03-22T07:27:29Z</time>
      </trkpt>
      <trkpt lat="46.6429" lon="-1.70866">
        <ele>58</ele>
        <time>2018-03-22T07:28:29Z</time>
      </trkpt>
      <trkpt lat="46.64212" lon="-1.70933">
        <ele>59</ele>
        <time>2018-03-22T07:29:29Z</time>
      </trkpt>
      <trkpt lat="46.64159" lon="-1.70988">
        <ele>60</ele>
        <time>2018-03-22T07:30:29Z</time>
      </trkpt>
      <trkpt lat="46.64116" lon="-1.71049">
        <ele>59</ele>
        <time>2018-03-22T07:31:29Z</time>
      </trkpt>
      <trkpt lat="46.64042" lon="-1.71133">
        <ele>57</ele>
        <time>2018-03-22T07:32:29Z</time>
      </trkpt>
      <trkpt lat="46.64022" lon="-1.71156">
        <ele>57</ele>
        <time>2018-03-22T07:33:29Z</time>
      </trkpt>
      <trkpt lat="46.64064" lon="-1.71233">
        <ele>57</ele>
        <time>2018-03-22T07:34:29Z</time>
      </trkpt>
      <trkpt lat="46.64064" lon="-1.71241">
        <ele>57</ele>
        <time>2018-03-22T07:35:29Z</time>
      </trkpt>
      <trkpt lat="46.64047" lon="-1.71401">
        <ele>59</ele>
        <time>2018-03-22T07:36:29Z</time>
      </trkpt>
      <trkpt lat="46.6405" lon="-1.71423">
        <ele>59</ele>
        <time>2018-03-22T07:37:29Z</time>
      </trkpt>
      <trkpt lat="46.64068" lon="-1.71468">
        <ele>58</ele>
        <time>2018-03-22T07:38:29Z</time>
      </trkpt>
      <trkpt lat="46.64085" lon="-1.71501">
        <ele>57</ele>
        <time>2018-03-22T07:39:29Z</time>
      </trkpt>
      <trkpt lat="46.64091" lon="-1.71521">
        <ele>57</ele>
        <time>2018-03-22T07:40:29Z</time>
      </trkpt>
      <trkpt lat="46.64129" lon="-1.71511">
        <ele>57</ele>
        <time>2018-03-22T07:41:29Z</time>
      </trkpt>
      <trkpt lat="46.64261" lon="-1.71517">
        <ele>54</ele>
        <time>2018-03-22T07:42:29Z</time>
      </trkpt>
      <trkpt lat="46.64398" lon="-1.71517">
        <ele>52</ele>
        <time>2018-03-22T07:43:29Z</time>
      </trkpt>
      <trkpt lat="46.64407" lon="-1.71615">
        <ele>54</ele>
        <time>2018-03-22T07:44:29Z</time>
      </trkpt>
      <trkpt lat="46.64421" lon="-1.71731">
        <ele>56</ele>
        <time>2018-03-22T07:45:29Z</time>
      </trkpt>
      <trkpt lat="46.64433" lon="-1.71762">
        <ele>56</ele>
        <time>2018-03-22T07:46:29Z</time>
      </trkpt>
      <trkpt lat="46.64456" lon="-1.71817">
        <ele>56</ele>
        <time>2018-03-22T07:47:29Z</time>
      </trkpt>
      <trkpt lat="46.64465" lon="-1.71834">
        <ele>56</ele>
        <time>2018-03-22T07:48:29Z</time>
      </trkpt>
      <trkpt lat="46.64494" lon="-1.71959">
        <ele>57</ele>
        <time>2018-03-22T07:49:29Z</time>
      </trkpt>
      <trkpt lat="46.64506" lon="-1.72061">
        <ele>57</ele>
        <time>2018-03-22T07:50:29Z</time>
      </trkpt>
      <trkpt lat="46.64514" lon="-1.72169">
        <ele>58</ele>
        <time>2018-03-22T07:51:29Z</time>
      </trkpt>
      <trkpt lat="46.6453" lon="-1.72313">
        <ele>59</ele>
        <time>2018-03-22T07:52:29Z</time>
      </trkpt>
      <trkpt lat="46.64562" lon="-1.72486">
        <ele>58</ele>
        <time>2018-03-22T07:53:29Z</time>
      </trkpt>
      <trkpt lat="46.64562" lon="-1.72486">
        <ele>58</ele>
        <time>2018-03-22T07:54:29Z</time>
      </trkpt>
      <trkpt lat="46.64575" lon="-1.72551">
        <ele>59</ele>
        <time>2018-03-22T07:55:29Z</time>
      </trkpt>
      <trkpt lat="46.64606" lon="-1.72634">
        <ele>59</ele>
        <time>2018-03-22T07:56:29Z</time>
      </trkpt>
      <trkpt lat="46.64624" lon="-1.72708">
        <ele>58</ele>
        <time>2018-03-22T07:57:29Z</time>
      </trkpt>
      <trkpt lat="46.64628" lon="-1.72856">
        <ele>58</ele>
        <time>2018-03-22T07:58:29Z</time>
      </trkpt>
      <trkpt lat="46.64633" lon="-1.72907">
        <ele>58</ele>
        <time>2018-03-22T07:59:29Z</time>
      </trkpt>
      <trkpt lat="46.64649" lon="-1.72958">
        <ele>58</ele>
        <time>2018-03-22T08:00:29Z</time>
      </trkpt>
      <trkpt lat="46.64733" lon="-1.73131">
        <ele>58</ele>
        <time>2018-03-22T08:01:29Z</time>
      </trkpt>
      <trkpt lat="46.64791" lon="-1.73256">
        <ele>56</ele>
        <time>2018-03-22T08:02:29Z</time>
      </trkpt>
      <trkpt lat="46.64855" lon="-1.73383">
        <ele>56</ele>
        <time>2018-03-22T08:03:29Z</time>
      </trkpt>
      <trkpt lat="46.64969" lon="-1.73567">
        <ele>55</ele>
        <time>2018-03-22T08:04:29Z</time>
      </trkpt>
      <trkpt lat="46.6503" lon="-1.73634">
        <ele>55</ele>
        <time>2018-03-22T08:05:29Z</time>
      </trkpt>
      <trkpt lat="46.6509" lon="-1.73712">
        <ele>55</ele>
        <time>2018-03-22T08:06:29Z</time>
      </trkpt>
      <trkpt lat="46.65303" lon="-1.73955">
        <ele>53</ele>
        <time>2018-03-22T08:07:29Z</time>
      </trkpt>
      <trkpt lat="46.65395" lon="-1.74097">
        <ele>54</ele>
        <time>2018-03-22T08:08:29Z</time>
      </trkpt>
      <trkpt lat="46.65436" lon="-1.74168">
        <ele>55</ele>
        <time>2018-03-22T08:09:29Z</time>
      </trkpt>
      <trkpt lat="46.65521" lon="-1.74318">
        <ele>53</ele>
        <time>2018-03-22T08:10:29Z</time>
      </trkpt>
      <trkpt lat="46.65537" lon="-1.74338">
        <ele>53</ele>
        <time>2018-03-22T08:11:29Z</time>
      </trkpt>
      <trkpt lat="46.65607" lon="-1.74385">
        <ele>51</ele>
        <time>2018-03-22T08:12:29Z</time>
      </trkpt>
      <trkpt lat="46.65757" lon="-1.74496">
        <ele>47</ele>
        <time>2018-03-22T08:13:29Z</time>
      </trkpt>
      <trkpt lat="46.65778" lon="-1.74518">
        <ele>45</ele>
        <time>2018-03-22T08:14:29Z</time>
      </trkpt>
      <trkpt lat="46.65806" lon="-1.74554">
        <ele>45</ele>
        <time>2018-03-22T08:15:29Z</time>
      </trkpt>
      <trkpt lat="46.65876" lon="-1.74671">
        <ele>41</ele>
        <time>2018-03-22T08:16:29Z</time>
      </trkpt>
      <trkpt lat="46.65897" lon="-1.74699">
        <ele>39</ele>
        <time>2018-03-22T08:17:29Z</time>
      </trkpt>
      <trkpt lat="46.65922" lon="-1.74722">
        <ele>38</ele>
        <time>2018-03-22T08:18:29Z</time>
      </trkpt>
      <trkpt lat="46.65964" lon="-1.74754">
        <ele>34</ele>
        <time>2018-03-22T08:19:29Z</time>
      </trkpt>
      <trkpt lat="46.66042" lon="-1.74795">
        <ele>27</ele>
        <time>2018-03-22T08:20:29Z</time>
      </trkpt>
      <trkpt lat="46.66114" lon="-1.74825">
        <ele>23</ele>
        <time>2018-03-22T08:21:29Z</time>
      </trkpt>
      <trkpt lat="46.66162" lon="-1.74829">
        <ele>20</ele>
        <time>2018-03-22T08:22:29Z</time>
      </trkpt>
      <trkpt lat="46.66186" lon="-1.74827">
        <ele>18</ele>
        <time>2018-03-22T08:23:29Z</time>
      </trkpt>
      <trkpt lat="46.66194" lon="-1.74869">
        <ele>18</ele>
        <time>2018-03-22T08:24:29Z</time>
      </trkpt>
      <trkpt lat="46.6621" lon="-1.74927">
        <ele>17</ele>
        <time>2018-03-22T08:25:29Z</time>
      </trkpt>
      <trkpt lat="46.66208" lon="-1.74947">
        <ele>16</ele>
        <time>2018-03-22T08:26:29Z</time>
      </trkpt>
      <trkpt lat="46.662" lon="-1.7497">
        <ele>16</ele>
        <time>2018-03-22T08:27:29Z</time>
      </trkpt>
      <trkpt lat="46.66146" lon="-1.7506">
        <ele>14</ele>
        <time>2018-03-22T08:28:29Z</time>
      </trkpt>
      <trkpt lat="46.66011" lon="-1.75298">
        <ele>16</ele>
        <time>2018-03-22T08:29:29Z</time>
      </trkpt>
      <trkpt lat="46.66008" lon="-1.75308">
        <ele>16</ele>
        <time>2018-03-22T08:30:29Z</time>
      </trkpt>
      <trkpt lat="46.66007" lon="-1.7533">
        <ele>16</ele>
        <time>2018-03-22T08:31:29Z</time>
      </trkpt>
      <trkpt lat="46.66014" lon="-1.75349">
        <ele>16</ele>
        <time>2018-03-22T08:32:29Z</time>
      </trkpt>
      <trkpt lat="46.66023" lon="-1.75358">
        <ele>16</ele>
        <time>2018-03-22T08:33:29Z</time>
      </trkpt>
      <trkpt lat="46.66043" lon="-1.75365">
        <ele>18</ele>
        <time>2018-03-22T08:34:29Z</time>
      </trkpt>
      <trkpt lat="46.6615" lon="-1.7539">
        <ele>26</ele>
        <time>2018-03-22T08:35:29Z</time>
      </trkpt>
      <trkpt lat="46.6621" lon="-1.75396">
        <ele>28</ele>
        <time>2018-03-22T08:36:29Z</time>
      </trkpt>
      <trkpt lat="46.66316" lon="-1.754">
        <ele>30</ele>
        <time>2018-03-22T08:37:29Z</time>
      </trkpt>
      <trkpt lat="46.66328" lon="-1.75408">
        <ele>31</ele>
        <time>2018-03-22T08:38:29Z</time>
      </trkpt>
      <trkpt lat="46.66344" lon="-1.75435">
        <ele>31</ele>
        <time>2018-03-22T08:39:29Z</time>
      </trkpt>
      <trkpt lat="46.66355" lon="-1.7545">
        <ele>31</ele>
        <time>2018-03-22T08:40:29Z</time>
      </trkpt>
      <trkpt lat="46.66382" lon="-1.75465">
        <ele>32</ele>
        <time>2018-03-22T08:41:29Z</time>
      </trkpt>
      <trkpt lat="46.66401" lon="-1.75473">
        <ele>33</ele>
        <time>2018-03-22T08:42:29Z</time>
      </trkpt>
      <trkpt lat="46.66418" lon="-1.75477">
        <ele>34</ele>
        <time>2018-03-22T08:43:29Z</time>
      </trkpt>
      <trkpt lat="46.66459" lon="-1.75479">
        <ele>39</ele>
        <time>2018-03-22T08:44:29Z</time>
      </trkpt>
      <trkpt lat="46.66525" lon="-1.75466">
        <ele>47</ele>
        <time>2018-03-22T08:45:29Z</time>
      </trkpt>
      <trkpt lat="46.66553" lon="-1.7547">
        <ele>48</ele>
        <time>2018-03-22T08:46:29Z</time>
      </trkpt>
      <trkpt lat="46.66623" lon="-1.75499">
        <ele>50</ele>
        <time>2018-03-22T08:47:29Z</time>
      </trkpt>
      <trkpt lat="46.66676" lon="-1.7549">
        <ele>49</ele>
        <time>2018-03-22T08:48:29Z</time>
      </trkpt>
      <trkpt lat="46.66701" lon="-1.75488">
        <ele>48</ele>
        <time>2018-03-22T08:49:29Z</time>
      </trkpt>
      <trkpt lat="46.66743" lon="-1.75499">
        <ele>47</ele>
        <time>2018-03-22T08:50:29Z</time>
      </trkpt>
      <trkpt lat="46.66796" lon="-1.75517">
        <ele>46</ele>
        <time>2018-03-22T08:51:29Z</time>
      </trkpt>
      <trkpt lat="46.66812" lon="-1.7553">
        <ele>45</ele>
        <time>2018-03-22T08:52:29Z</time>
      </trkpt>
      <trkpt lat="46.66859" lon="-1.75577">
        <ele>47</ele>
        <time>2018-03-22T08:53:29Z</time>
      </trkpt>
      <trkpt lat="46.66877" lon="-1.75591">
        <ele>47</ele>
        <time>2018-03-22T08:54:29Z</time>
      </trkpt>
      <trkpt lat="46.66892" lon="-1.75599">
        <ele>47</ele>
        <time>2018-03-22T08:55:29Z</time>
      </trkpt>
      <trkpt lat="46.6692" lon="-1.75606">
        <ele>48</ele>
        <time>2018-03-22T08:56:29Z</time>
      </trkpt>
      <trkpt lat="46.66972" lon="-1.75615">
        <ele>48</ele>
        <time>2018-03-22T08:57:29Z</time>
      </trkpt>
      <trkpt lat="46.66989" lon="-1.75623">
        <ele>49</ele>
        <time>2018-03-22T08:58:29Z</time>
      </trkpt>
      <trkpt lat="46.66998" lon="-1.75633">
        <ele>49</ele>
        <time>2018-03-22T08:59:29Z</time>
      </trkpt>
      <trkpt lat="46.67011" lon="-1.75655">
        <ele>50</ele>
        <time>2018-03-22T09:00:29Z</time>
      </trkpt>
      <trkpt lat="46.67017" lon="-1.7567">
        <ele>51</ele>
        <time>2018-03-22T09:01:29Z</time>
      </trkpt>
      <trkpt lat="46.67037" lon="-1.75739">
        <ele>51</ele>
        <time>2018-03-22T09:02:29Z</time>
      </trkpt>
      <trkpt lat="46.67053" lon="-1.75778">
        <ele>51</ele>
        <time>2018-03-22T09:03:29Z</time>
      </trkpt>
      <trkpt lat="46.67058" lon="-1.75796">
        <ele>51</ele>
        <time>2018-03-22T09:04:29Z</time>
      </trkpt>
      <trkpt lat="46.67067" lon="-1.75841">
        <ele>51</ele>
        <time>2018-03-22T09:05:29Z</time>
      </trkpt>
      <trkpt lat="46.67107" lon="-1.75929">
        <ele>51</ele>
        <time>2018-03-22T09:06:29Z</time>
      </trkpt>
      <trkpt lat="46.67117" lon="-1.75948">
        <ele>52</ele>
        <time>2018-03-22T09:07:29Z</time>
      </trkpt>
      <trkpt lat="46.67129" lon="-1.75959">
        <ele>52</ele>
        <time>2018-03-22T09:08:29Z</time>
      </trkpt>
      <trkpt lat="46.67139" lon="-1.75961">
        <ele>52</ele>
        <time>2018-03-22T09:09:29Z</time>
      </trkpt>
      <trkpt lat="46.67149" lon="-1.75958">
        <ele>52</ele>
        <time>2018-03-22T09:10:29Z</time>
      </trkpt>
      <trkpt lat="46.67302" lon="-1.75864">
        <ele>52</ele>
        <time>2018-03-22T09:11:29Z</time>
      </trkpt>
      <trkpt lat="46.67288" lon="-1.76021">
        <ele>52</ele>
        <time>2018-03-22T09:12:29Z</time>
      </trkpt>
      <trkpt lat="46.67273" lon="-1.76149">
        <ele>52</ele>
        <time>2018-03-22T09:13:29Z</time>
      </trkpt>
      <trkpt lat="46.67266" lon="-1.76182">
        <ele>52</ele>
        <time>2018-03-22T09:14:29Z</time>
      </trkpt>
      <trkpt lat="46.67254" lon="-1.76216">
        <ele>51</ele>
        <time>2018-03-22T09:15:29Z</time>
      </trkpt>
      <trkpt lat="46.67227" lon="-1.76279">
        <ele>51</ele>
        <time>2018-03-22T09:16:29Z</time>
      </trkpt>
      <trkpt lat="46.67203" lon="-1.76331">
        <ele>51</ele>
        <time>2018-03-22T09:17:29Z</time>
      </trkpt>
      <trkpt lat="46.67203" lon="-1.76331">
        <ele>51</ele>
        <time>2018-03-22T09:18:29Z</time>
      </trkpt>
      <trkpt lat="46.67183" lon="-1.76373">
        <ele>51</ele>
        <time>2018-03-22T09:19:29Z</time>
      </trkpt>
      <trkpt lat="46.67124" lon="-1.76584">
        <ele>50</ele>
        <time>2018-03-22T09:20:29Z</time>
      </trkpt>
      <trkpt lat="46.67111" lon="-1.76733">
        <ele>52</ele>
        <time>2018-03-22T09:21:29Z</time>
      </trkpt>
      <trkpt lat="46.67066" lon="-1.76949">
        <ele>52</ele>
        <time>2018-03-22T09:22:29Z</time>
      </trkpt>
      <trkpt lat="46.6704" lon="-1.77136">
        <ele>50</ele>
        <time>2018-03-22T09:23:29Z</time>
      </trkpt>
      <trkpt lat="46.67007" lon="-1.77313">
        <ele>48</ele>
        <time>2018-03-22T09:24:29Z</time>
      </trkpt>
      <trkpt lat="46.66956" lon="-1.77512">
        <ele>47</ele>
        <time>2018-03-22T09:25:29Z</time>
      </trkpt>
      <trkpt lat="46.66957" lon="-1.77549">
        <ele>46</ele>
        <time>2018-03-22T09:26:29Z</time>
      </trkpt>
      <trkpt lat="46.67143" lon="-1.77934">
        <ele>42</ele>
        <time>2018-03-22T09:27:29Z</time>
      </trkpt>
      <trkpt lat="46.67151" lon="-1.77963">
        <ele>42</ele>
        <time>2018-03-22T09:28:29Z</time>
      </trkpt>
      <trkpt lat="46.67163" lon="-1.78119">
        <ele>41</ele>
        <time>2018-03-22T09:29:29Z</time>
      </trkpt>
      <trkpt lat="46.67171" lon="-1.78155">
        <ele>40</ele>
        <time>2018-03-22T09:30:29Z</time>
      </trkpt>
      <trkpt lat="46.67186" lon="-1.78214">
        <ele>39</ele>
        <time>2018-03-22T09:31:29Z</time>
      </trkpt>
      <trkpt lat="46.67198" lon="-1.78225">
        <ele>38</ele>
        <time>2018-03-22T09:32:29Z</time>
      </trkpt>
      <trkpt lat="46.67321" lon="-1.78286">
        <ele>37</ele>
        <time>2018-03-22T09:33:29Z</time>
      </trkpt>
      <trkpt lat="46.67334" lon="-1.78296">
        <ele>36</ele>
        <time>2018-03-22T09:34:29Z</time>
      </trkpt>
      <trkpt lat="46.67343" lon="-1.78307">
        <ele>37</ele>
        <time>2018-03-22T09:35:29Z</time>
      </trkpt>
      <trkpt lat="46.67355" lon="-1.78332">
        <ele>37</ele>
        <time>2018-03-22T09:36:29Z</time>
      </trkpt>
      <trkpt lat="46.6737" lon="-1.78381">
        <ele>37</ele>
        <time>2018-03-22T09:37:29Z</time>
      </trkpt>
      <trkpt lat="46.67392" lon="-1.78436">
        <ele>37</ele>
        <time>2018-03-22T09:38:29Z</time>
      </trkpt>
      <trkpt lat="46.67432" lon="-1.78527">
        <ele>36</ele>
        <time>2018-03-22T09:39:29Z</time>
      </trkpt>
      <trkpt lat="46.67444" lon="-1.78549">
        <ele>36</ele>
        <time>2018-03-22T09:40:29Z</time>
      </trkpt>
      <trkpt lat="46.67446" lon="-1.78554">
        <ele>36</ele>
        <time>2018-03-22T09:41:29Z</time>
      </trkpt>
      <trkpt lat="46.67361" lon="-1.78669">
        <ele>35</ele>
        <time>2018-03-22T09:42:29Z</time>
      </trkpt>
      <trkpt lat="46.67361" lon="-1.78669">
        <ele>35</ele>
        <time>2018-03-22T09:43:29Z</time>
      </trkpt>
      <trkpt lat="46.67222" lon="-1.78857">
        <ele>34</ele>
        <time>2018-03-22T09:44:29Z</time>
      </trkpt>
      <trkpt lat="46.66889" lon="-1.79317">
        <ele>38</ele>
        <time>2018-03-22T09:45:29Z</time>
      </trkpt>
      <trkpt lat="46.66795" lon="-1.79466">
        <ele>41</ele>
        <time>2018-03-22T09:46:29Z</time>
      </trkpt>
      <trkpt lat="46.66777" lon="-1.79507">
        <ele>41</ele>
        <time>2018-03-22T09:47:29Z</time>
      </trkpt>
      <trkpt lat="46.6676" lon="-1.79557">
        <ele>40</ele>
        <time>2018-03-22T09:48:29Z</time>
      </trkpt>
      <trkpt lat="46.66695" lon="-1.79814">
        <ele>41</ele>
        <time>2018-03-22T09:49:29Z</time>
      </trkpt>
      <trkpt lat="46.66669" lon="-1.79921">
        <ele>40</ele>
        <time>2018-03-22T09:50:29Z</time>
      </trkpt>
      <trkpt lat="46.66642" lon="-1.80015">
        <ele>40</ele>
        <time>2018-03-22T09:51:29Z</time>
      </trkpt>
      <trkpt lat="46.66558" lon="-1.80269">
        <ele>38</ele>
        <time>2018-03-22T09:52:29Z</time>
      </trkpt>
      <trkpt lat="46.66547" lon="-1.80297">
        <ele>38</ele>
        <time>2018-03-22T09:53:29Z</time>
      </trkpt>
      <trkpt lat="46.6653" lon="-1.80333">
        <ele>38</ele>
        <time>2018-03-22T09:54:29Z</time>
      </trkpt>
      <trkpt lat="46.66513" lon="-1.80359">
        <ele>38</ele>
        <time>2018-03-22T09:55:29Z</time>
      </trkpt>
      <trkpt lat="46.66488" lon="-1.80392">
        <ele>37</ele>
        <time>2018-03-22T09:56:29Z</time>
      </trkpt>
      <trkpt lat="46.66352" lon="-1.80538">
        <ele>35</ele>
        <time>2018-03-22T09:57:29Z</time>
      </trkpt>
      <trkpt lat="46.66165" lon="-1.80745">
        <ele>30</ele>
        <time>2018-03-22T09:58:29Z</time>
      </trkpt>
      <trkpt lat="46.66132" lon="-1.80779">
        <ele>28</ele>
        <time>2018-03-22T09:59:29Z</time>
      </trkpt>
      <trkpt lat="46.66063" lon="-1.80836">
        <ele>24</ele>
        <time>2018-03-22T10:00:29Z</time>
      </trkpt>
      <trkpt lat="46.66015" lon="-1.80873">
        <ele>20</ele>
        <time>2018-03-22T10:01:29Z</time>
      </trkpt>
      <trkpt lat="46.6595" lon="-1.80909">
        <ele>17</ele>
        <time>2018-03-22T10:02:29Z</time>
      </trkpt>
      <trkpt lat="46.65699" lon="-1.80998">
        <ele>22</ele>
        <time>2018-03-22T10:03:29Z</time>
      </trkpt>
      <trkpt lat="46.65613" lon="-1.81033">
        <ele>20</ele>
        <time>2018-03-22T10:04:29Z</time>
      </trkpt>
      <trkpt lat="46.65591" lon="-1.81044">
        <ele>19</ele>
        <time>2018-03-22T10:05:29Z</time>
      </trkpt>
      <trkpt lat="46.65564" lon="-1.81061">
        <ele>18</ele>
        <time>2018-03-22T10:06:29Z</time>
      </trkpt>
      <trkpt lat="46.65564" lon="-1.81061">
        <ele>18</ele>
        <time>2018-03-22T10:07:29Z</time>
      </trkpt>
      <trkpt lat="46.65497" lon="-1.81111">
        <ele>13</ele>
        <time>2018-03-22T10:08:29Z</time>
      </trkpt>
      <trkpt lat="46.65434" lon="-1.8117">
        <ele>8</ele>
        <time>2018-03-22T10:09:29Z</time>
      </trkpt>
      <trkpt lat="46.65387" lon="-1.81227">
        <ele>6</ele>
        <time>2018-03-22T10:10:29Z</time>
      </trkpt>
      <trkpt lat="46.6535" lon="-1.81285">
        <ele>5</ele>
        <time>2018-03-22T10:11:29Z</time>
      </trkpt>
      <trkpt lat="46.65347" lon="-1.81294">
        <ele>5</ele>
        <time>2018-03-22T10:12:29Z</time>
      </trkpt>
      <trkpt lat="46.65345" lon="-1.81314">
        <ele>5</ele>
        <time>2018-03-22T10:13:29Z</time>
      </trkpt>
      <trkpt lat="46.65308" lon="-1.81314">
        <ele>6</ele>
        <time>2018-03-22T10:14:29Z</time>
      </trkpt>
      <trkpt lat="46.65138" lon="-1.81375">
        <ele>13</ele>
        <time>2018-03-22T10:15:29Z</time>
      </trkpt>
      <trkpt lat="46.65147" lon="-1.81416">
        <ele>12</ele>
        <time>2018-03-22T10:16:29Z</time>
      </trkpt>
      <trkpt lat="46.65148" lon="-1.81431">
        <ele>12</ele>
        <time>2018-03-22T10:17:29Z</time>
      </trkpt>
      <trkpt lat="46.65143" lon="-1.81443">
        <ele>12</ele>
        <time>2018-03-22T10:18:29Z</time>
      </trkpt>
      <trkpt lat="46.65118" lon="-1.81465">
        <ele>13</ele>
        <time>2018-03-22T10:19:29Z</time>
      </trkpt>
      <trkpt lat="46.6509" lon="-1.81497">
        <ele>14</ele>
        <time>2018-03-22T10:20:29Z</time>
      </trkpt>
      <trkpt lat="46.65044" lon="-1.81575">
        <ele>17</ele>
        <time>2018-03-22T10:21:29Z</time>
      </trkpt>
      <trkpt lat="46.64993" lon="-1.81704">
        <ele>18</ele>
        <time>2018-03-22T10:22:29Z</time>
      </trkpt>
      <trkpt lat="46.64981" lon="-1.81712">
        <ele>19</ele>
        <time>2018-03-22T10:23:29Z</time>
      </trkpt>
      <trkpt lat="46.64943" lon="-1.8172">
        <ele>23</ele>
        <time>2018-03-22T10:24:29Z</time>
      </trkpt>
      <trkpt lat="46.64938" lon="-1.81724">
        <ele>23</ele>
        <time>2018-03-22T10:25:29Z</time>
      </trkpt>
      <trkpt lat="46.6491" lon="-1.81777">
        <ele>26</ele>
        <time>2018-03-22T10:26:29Z</time>
      </trkpt>
      <trkpt lat="46.64905" lon="-1.81772">
        <ele>26</ele>
        <time>2018-03-22T10:27:29Z</time>
      </trkpt>
      <trkpt lat="46.64892" lon="-1.81767">
        <ele>27</ele>
        <time>2018-03-22T10:28:29Z</time>
      </trkpt>
      <trkpt lat="46.64873" lon="-1.81782">
        <ele>28</ele>
        <time>2018-03-22T10:29:29Z</time>
      </trkpt>
      <trkpt lat="46.64865" lon="-1.81795">
        <ele>28</ele>
        <time>2018-03-22T10:30:29Z</time>
      </trkpt>
      <trkpt lat="46.64848" lon="-1.8181">
        <ele>29</ele>
        <time>2018-03-22T10:31:29Z</time>
      </trkpt>
      <trkpt lat="46.64838" lon="-1.81823">
        <ele>30</ele>
        <time>2018-03-22T10:32:29Z</time>
      </trkpt>
      <trkpt lat="46.64832" lon="-1.81838">
        <ele>30</ele>
        <time>2018-03-22T10:33:29Z</time>
      </trkpt>
      <trkpt lat="46.64834" lon="-1.8185">
        <ele>30</ele>
        <time>2018-03-22T10:34:29Z</time>
      </trkpt>
      <trkpt lat="46.64834" lon="-1.8186">
        <ele>30</ele>
        <time>2018-03-22T10:35:29Z</time>
      </trkpt>
      <trkpt lat="46.64832" lon="-1.81865">
        <ele>30</ele>
        <time>2018-03-22T10:36:29Z</time>
      </trkpt>
      <trkpt lat="46.64828" lon="-1.8187">
        <ele>30</ele>
        <time>2018-03-22T10:37:29Z</time>
      </trkpt>
      <trkpt lat="46.64775" lon="-1.81908">
        <ele>32</ele>
        <time>2018-03-22T10:38:29Z</time>
      </trkpt>
      <trkpt lat="46.64768" lon="-1.81925">
        <ele>32</ele>
        <time>2018-03-22T10:39:29Z</time>
      </trkpt>
      <trkpt lat="46.64762" lon="-1.81933">
        <ele>32</ele>
        <time>2018-03-22T10:40:29Z</time>
      </trkpt>
      <trkpt lat="46.64739" lon="-1.81952">
        <ele>33</ele>
        <time>2018-03-22T10:41:29Z</time>
      </trkpt>
      <trkpt lat="46.64656" lon="-1.81972">
        <ele>35</ele>
        <time>2018-03-22T10:42:29Z</time>
      </trkpt>
      <trkpt lat="46.64508" lon="-1.81959">
        <ele>36</ele>
        <time>2018-03-22T10:43:29Z</time>
      </trkpt>
      <trkpt lat="46.64453" lon="-1.81959">
        <ele>35</ele>
        <time>2018-03-22T10:44:29Z</time>
      </trkpt>
      <trkpt lat="46.64424" lon="-1.81961">
        <ele>35</ele>
        <time>2018-03-22T10:45:29Z</time>
      </trkpt>
      <trkpt lat="46.64422" lon="-1.81952">
        <ele>35</ele>
        <time>2018-03-22T10:46:29Z</time>
      </trkpt>
      <trkpt lat="46.64417" lon="-1.81949">
        <ele>35</ele>
        <time>2018-03-22T10:47:29Z</time>
      </trkpt>
      <trkpt lat="46.64193" lon="-1.81985">
        <ele>31</ele>
        <time>2018-03-22T10:48:29Z</time>
      </trkpt>
      <trkpt lat="46.64164" lon="-1.81985">
        <ele>31</ele>
        <time>2018-03-22T10:49:29Z</time>
      </trkpt>
      <trkpt lat="46.6414" lon="-1.81973">
        <ele>30</ele>
        <time>2018-03-22T10:50:29Z</time>
      </trkpt>
      <trkpt lat="46.64114" lon="-1.81979">
        <ele>30</ele>
        <time>2018-03-22T10:51:29Z</time>
      </trkpt>
      <trkpt lat="46.64098" lon="-1.81992">
        <ele>29</ele>
        <time>2018-03-22T10:52:29Z</time>
      </trkpt>
      <trkpt lat="46.64068" lon="-1.82003">
        <ele>29</ele>
        <time>2018-03-22T10:53:29Z</time>
      </trkpt>
      <trkpt lat="46.6399" lon="-1.82017">
        <ele>30</ele>
        <time>2018-03-22T10:54:29Z</time>
      </trkpt>
      <trkpt lat="46.6393" lon="-1.82036">
        <ele>32</ele>
        <time>2018-03-22T10:55:29Z</time>
      </trkpt>
      <trkpt lat="46.63831" lon="-1.82085">
        <ele>34</ele>
        <time>2018-03-22T10:56:29Z</time>
      </trkpt>
      <trkpt lat="46.63819" lon="-1.82088">
        <ele>34</ele>
        <time>2018-03-22T10:57:29Z</time>
      </trkpt>
      <trkpt lat="46.63783" lon="-1.82089">
        <ele>34</ele>
        <time>2018-03-22T10:58:29Z</time>
      </trkpt>
      <trkpt lat="46.63778" lon="-1.82094">
        <ele>34</ele>
        <time>2018-03-22T10:59:29Z</time>
      </trkpt>
      <trkpt lat="46.63772" lon="-1.82109">
        <ele>34</ele>
        <time>2018-03-22T11:00:29Z</time>
      </trkpt>
      <trkpt lat="46.63748" lon="-1.82095">
        <ele>34</ele>
        <time>2018-03-22T11:01:29Z</time>
      </trkpt>
      <trkpt lat="46.63634" lon="-1.82097">
        <ele>32</ele>
        <time>2018-03-22T11:02:29Z</time>
      </trkpt>
      <trkpt lat="46.63379" lon="-1.82083">
        <ele>33</ele>
        <time>2018-03-22T11:03:29Z</time>
      </trkpt>
      <trkpt lat="46.6334" lon="-1.82083">
        <ele>31</ele>
        <time>2018-03-22T11:04:29Z</time>
      </trkpt>
      <trkpt lat="46.63294" lon="-1.82095">
        <ele>32</ele>
        <time>2018-03-22T11:05:29Z</time>
      </trkpt>
      <trkpt lat="46.63054" lon="-1.82193">
        <ele>36</ele>
        <time>2018-03-22T11:06:29Z</time>
      </trkpt>
      <trkpt lat="46.63039" lon="-1.82197">
        <ele>36</ele>
        <time>2018-03-22T11:07:29Z</time>
      </trkpt>
      <trkpt lat="46.63021" lon="-1.82197">
        <ele>36</ele>
        <time>2018-03-22T11:08:29Z</time>
      </trkpt>
      <trkpt lat="46.63012" lon="-1.82193">
        <ele>36</ele>
        <time>2018-03-22T11:09:29Z</time>
      </trkpt>
      <trkpt lat="46.62996" lon="-1.82184">
        <ele>36</ele>
        <time>2018-03-22T11:10:29Z</time>
      </trkpt>
      <trkpt lat="46.62933" lon="-1.82132">
        <ele>32</ele>
        <time>2018-03-22T11:11:29Z</time>
      </trkpt>
      <trkpt lat="46.62917" lon="-1.82125">
        <ele>31</ele>
        <time>2018-03-22T11:12:29Z</time>
      </trkpt>
      <trkpt lat="46.62907" lon="-1.82125">
        <ele>30</ele>
        <time>2018-03-22T11:13:29Z</time>
      </trkpt>
      <trkpt lat="46.62882" lon="-1.82135">
        <ele>28</ele>
        <time>2018-03-22T11:14:29Z</time>
      </trkpt>
      <trkpt lat="46.62861" lon="-1.82152">
        <ele>28</ele>
        <time>2018-03-22T11:15:29Z</time>
      </trkpt>
      <trkpt lat="46.62847" lon="-1.82167">
        <ele>28</ele>
        <time>2018-03-22T11:16:29Z</time>
      </trkpt>
      <trkpt lat="46.62819" lon="-1.82211">
        <ele>27</ele>
        <time>2018-03-22T11:17:29Z</time>
      </trkpt>
      <trkpt lat="46.62798" lon="-1.82234">
        <ele>26</ele>
        <time>2018-03-22T11:18:29Z</time>
      </trkpt>
      <trkpt lat="46.62787" lon="-1.82241">
        <ele>26</ele>
        <time>2018-03-22T11:19:29Z</time>
      </trkpt>
      <trkpt lat="46.62774" lon="-1.82245">
        <ele>25</ele>
        <time>2018-03-22T11:20:29Z</time>
      </trkpt>
      <trkpt lat="46.62626" lon="-1.82255">
        <ele>12</ele>
        <time>2018-03-22T11:21:29Z</time>
      </trkpt>
      <trkpt lat="46.62514" lon="-1.82277">
        <ele>11</ele>
        <time>2018-03-22T11:22:29Z</time>
      </trkpt>
      <trkpt lat="46.62424" lon="-1.82299">
        <ele>17</ele>
        <time>2018-03-22T11:23:29Z</time>
      </trkpt>
      <trkpt lat="46.62322" lon="-1.82338">
        <ele>22</ele>
        <time>2018-03-22T11:24:29Z</time>
      </trkpt>
      <trkpt lat="46.62222" lon="-1.82474">
        <ele>21</ele>
        <time>2018-03-22T11:25:29Z</time>
      </trkpt>
      <trkpt lat="46.62158" lon="-1.82555">
        <ele>23</ele>
        <time>2018-03-22T11:26:29Z</time>
      </trkpt>
      <trkpt lat="46.62141" lon="-1.82571">
        <ele>22</ele>
        <time>2018-03-22T11:27:29Z</time>
      </trkpt>
      <trkpt lat="46.62121" lon="-1.82584">
        <ele>21</ele>
        <time>2018-03-22T11:28:29Z</time>
      </trkpt>
      <trkpt lat="46.62092" lon="-1.82593">
        <ele>19</ele>
        <time>2018-03-22T11:29:29Z</time>
      </trkpt>
      <trkpt lat="46.61953" lon="-1.82623">
        <ele>19</ele>
        <time>2018-03-22T11:30:29Z</time>
      </trkpt>
      <trkpt lat="46.61732" lon="-1.82665">
        <ele>23</ele>
        <time>2018-03-22T11:31:29Z</time>
      </trkpt>
      <trkpt lat="46.61695" lon="-1.82663">
        <ele>24</ele>
        <time>2018-03-22T11:32:29Z</time>
      </trkpt>
      <trkpt lat="46.61476" lon="-1.82621">
        <ele>31</ele>
        <time>2018-03-22T11:33:29Z</time>
      </trkpt>
      <trkpt lat="46.61452" lon="-1.8262">
        <ele>32</ele>
        <time>2018-03-22T11:34:29Z</time>
      </trkpt>
      <trkpt lat="46.61416" lon="-1.82626">
        <ele>33</ele>
        <time>2018-03-22T11:35:29Z</time>
      </trkpt>
      <trkpt lat="46.61141" lon="-1.82713">
        <ele>38</ele>
        <time>2018-03-22T11:36:29Z</time>
      </trkpt>
      <trkpt lat="46.61072" lon="-1.82704">
        <ele>37</ele>
        <time>2018-03-22T11:37:29Z</time>
      </trkpt>
      <trkpt lat="46.61006" lon="-1.82684">
        <ele>36</ele>
        <time>2018-03-22T11:38:29Z</time>
      </trkpt>
      <trkpt lat="46.60984" lon="-1.82685">
        <ele>36</ele>
        <time>2018-03-22T11:39:29Z</time>
      </trkpt>
      <trkpt lat="46.60924" lon="-1.82703">
        <ele>36</ele>
        <time>2018-03-22T11:40:29Z</time>
      </trkpt>
      <trkpt lat="46.60861" lon="-1.8277">
        <ele>35</ele>
        <time>2018-03-22T11:41:29Z</time>
      </trkpt>
      <trkpt lat="46.60861" lon="-1.8277">
        <ele>35</ele>
        <time>2018-03-22T11:42:29Z</time>
      </trkpt>
      <trkpt lat="46.60773" lon="-1.82868">
        <ele>32</ele>
        <time>2018-03-22T11:43:29Z</time>
      </trkpt>
      <trkpt lat="46.60753" lon="-1.82885">
        <ele>32</ele>
        <time>2018-03-22T11:44:29Z</time>
      </trkpt>
      <trkpt lat="46.60688" lon="-1.82929">
        <ele>30</ele>
        <time>2018-03-22T11:45:29Z</time>
      </trkpt>
      <trkpt lat="46.60603" lon="-1.83012">
        <ele>28</ele>
        <time>2018-03-22T11:46:29Z</time>
      </trkpt>
      <trkpt lat="46.60578" lon="-1.8303">
        <ele>27</ele>
        <time>2018-03-22T11:47:29Z</time>
      </trkpt>
      <trkpt lat="46.60554" lon="-1.83036">
        <ele>26</ele>
        <time>2018-03-22T11:48:29Z</time>
      </trkpt>
      <trkpt lat="46.60545" lon="-1.83042">
        <ele>25</ele>
        <time>2018-03-22T11:49:29Z</time>
      </trkpt>
      <trkpt lat="46.60553" lon="-1.83068">
        <ele>25</ele>
        <time>2018-03-22T11:50:29Z</time>
      </trkpt>
      <trkpt lat="46.60559" lon="-1.83098">
        <ele>24</ele>
        <time>2018-03-22T11:51:29Z</time>
      </trkpt>
      <trkpt lat="46.60561" lon="-1.83116">
        <ele>24</ele>
        <time>2018-03-22T11:52:29Z</time>
      </trkpt>
      <trkpt lat="46.60555" lon="-1.83275">
        <ele>21</ele>
        <time>2018-03-22T11:53:29Z</time>
      </trkpt>
      <trkpt lat="46.60557" lon="-1.83305">
        <ele>21</ele>
        <time>2018-03-22T11:54:29Z</time>
      </trkpt>
      <trkpt lat="46.60565" lon="-1.83364">
        <ele>20</ele>
        <time>2018-03-22T11:55:29Z</time>
      </trkpt>
      <trkpt lat="46.6059" lon="-1.83491">
        <ele>20</ele>
        <time>2018-03-22T11:56:29Z</time>
      </trkpt>
      <trkpt lat="46.60598" lon="-1.83514">
        <ele>20</ele>
        <time>2018-03-22T11:57:29Z</time>
      </trkpt>
      <trkpt lat="46.60602" lon="-1.83521">
        <ele>20</ele>
        <time>2018-03-22T11:58:29Z</time>
      </trkpt>
      <trkpt lat="46.60608" lon="-1.83523">
        <ele>20</ele>
        <time>2018-03-22T11:59:29Z</time>
      </trkpt>
      <trkpt lat="46.60614" lon="-1.83532">
        <ele>20</ele>
        <time>2018-03-22T12:00:29Z</time>
      </trkpt>
      <trkpt lat="46.60614" lon="-1.83538">
        <ele>20</ele>
        <time>2018-03-22T12:01:29Z</time>
      </trkpt>
      <trkpt lat="46.60613" lon="-1.83545">
        <ele>19</ele>
        <time>2018-03-22T12:02:29Z</time>
      </trkpt>
      <trkpt lat="46.60609" lon="-1.8355">
        <ele>19</ele>
        <time>2018-03-22T12:03:29Z</time>
      </trkpt>
      <trkpt lat="46.60607" lon="-1.83575">
        <ele>18</ele>
        <time>2018-03-22T12:04:29Z</time>
      </trkpt>
      <trkpt lat="46.6061" lon="-1.83592">
        <ele>18</ele>
        <time>2018-03-22T12:05:29Z</time>
      </trkpt>
      <trkpt lat="46.60674" lon="-1.83839">
        <ele>18</ele>
        <time>2018-03-22T12:06:29Z</time>
      </trkpt>
      <trkpt lat="46.60703" lon="-1.83968">
        <ele>12</ele>
        <time>2018-03-22T12:07:29Z</time>
      </trkpt>
      <trkpt lat="46.60729" lon="-1.84069">
        <ele>8</ele>
        <time>2018-03-22T12:08:29Z</time>
      </trkpt>
      <trkpt lat="46.60757" lon="-1.84168">
        <ele>3</ele>
        <time>2018-03-22T12:09:29Z</time>
      </trkpt>
      <trkpt lat="46.60757" lon="-1.84168">
        <ele>3</ele>
        <time>2018-03-22T12:10:29Z</time>
      </trkpt>
      <trkpt lat="46.60815" lon="-1.84396">
        <ele>9</ele>
        <time>2018-03-22T12:11:29Z</time>
      </trkpt>
      <trkpt lat="46.6083" lon="-1.84435">
        <ele>10</ele>
        <time>2018-03-22T12:12:29Z</time>
      </trkpt>
      <trkpt lat="46.6086" lon="-1.8449">
        <ele>12</ele>
        <time>2018-03-22T12:13:29Z</time>
      </trkpt>
      <trkpt lat="46.60897" lon="-1.84538">
        <ele>14</ele>
        <time>2018-03-22T12:14:29Z</time>
      </trkpt>
      <trkpt lat="46.60922" lon="-1.84564">
        <ele>15</ele>
        <time>2018-03-22T12:15:29Z</time>
      </trkpt>
      <trkpt lat="46.6106" lon="-1.8468">
        <ele>19</ele>
        <time>2018-03-22T12:16:29Z</time>
      </trkpt>
      <trkpt lat="46.61081" lon="-1.84699">
        <ele>19</ele>
        <time>2018-03-22T12:17:29Z</time>
      </trkpt>
      <trkpt lat="46.611" lon="-1.8473">
        <ele>19</ele>
        <time>2018-03-22T12:18:29Z</time>
      </trkpt>
      <trkpt lat="46.61116" lon="-1.84746">
        <ele>20</ele>
        <time>2018-03-22T12:19:29Z</time>
      </trkpt>
      <trkpt lat="46.61124" lon="-1.84743">
        <ele>19</ele>
        <time>2018-03-22T12:20:29Z</time>
      </trkpt>
      <trkpt lat="46.61132" lon="-1.84744">
        <ele>19</ele>
        <time>2018-03-22T12:21:29Z</time>
      </trkpt>
      <trkpt lat="46.61138" lon="-1.84749">
        <ele>19</ele>
        <time>2018-03-22T12:22:29Z</time>
      </trkpt>
      <trkpt lat="46.61145" lon="-1.84761">
        <ele>19</ele>
        <time>2018-03-22T12:23:29Z</time>
      </trkpt>
      <trkpt lat="46.61147" lon="-1.84772">
        <ele>19</ele>
        <time>2018-03-22T12:24:29Z</time>
      </trkpt>
      <trkpt lat="46.61147" lon="-1.84782">
        <ele>19</ele>
        <time>2018-03-22T12:25:29Z</time>
      </trkpt>
      <trkpt lat="46.61144" lon="-1.84792">
        <ele>20</ele>
        <time>2018-03-22T12:26:29Z</time>
      </trkpt>
      <trkpt lat="46.61139" lon="-1.84799">
        <ele>20</ele>
        <time>2018-03-22T12:27:29Z</time>
      </trkpt>
      <trkpt lat="46.61136" lon="-1.84814">
        <ele>20</ele>
        <time>2018-03-22T12:28:29Z</time>
      </trkpt>
      <trkpt lat="46.61133" lon="-1.8483">
        <ele>20</ele>
        <time>2018-03-22T12:29:29Z</time>
      </trkpt>
      <trkpt lat="46.61133" lon="-1.84861">
        <ele>21</ele>
        <time>2018-03-22T12:30:29Z</time>
      </trkpt>
      <trkpt lat="46.61136" lon="-1.84927">
        <ele>22</ele>
        <time>2018-03-22T12:31:29Z</time>
      </trkpt>
      <trkpt lat="46.6114" lon="-1.84951">
        <ele>21</ele>
        <time>2018-03-22T12:32:29Z</time>
      </trkpt>
      <trkpt lat="46.61146" lon="-1.8497">
        <ele>21</ele>
        <time>2018-03-22T12:33:29Z</time>
      </trkpt>
      <trkpt lat="46.61157" lon="-1.84987">
        <ele>20</ele>
        <time>2018-03-22T12:34:29Z</time>
      </trkpt>
      <trkpt lat="46.612" lon="-1.85032">
        <ele>19</ele>
        <time>2018-03-22T12:35:29Z</time>
      </trkpt>
      <trkpt lat="46.61219" lon="-1.85058">
        <ele>18</ele>
        <time>2018-03-22T12:36:29Z</time>
      </trkpt>
      <trkpt lat="46.61275" lon="-1.85155">
        <ele>17</ele>
        <time>2018-03-22T12:37:29Z</time>
      </trkpt>
      <trkpt lat="46.61296" lon="-1.85182">
        <ele>16</ele>
        <time>2018-03-22T12:38:29Z</time>
      </trkpt>
      <trkpt lat="46.61336" lon="-1.85221">
        <ele>16</ele>
        <time>2018-03-22T12:39:29Z</time>
      </trkpt>
      <trkpt lat="46.61356" lon="-1.85249">
        <ele>15</ele>
        <time>2018-03-22T12:40:29Z</time>
      </trkpt>
      <trkpt lat="46.6137" lon="-1.85283">
        <ele>15</ele>
        <time>2018-03-22T12:41:29Z</time>
      </trkpt>
      <trkpt lat="46.61401" lon="-1.85419">
        <ele>14</ele>
        <time>2018-03-22T12:42:29Z</time>
      </trkpt>
      <trkpt lat="46.61416" lon="-1.85472">
        <ele>13</ele>
        <time>2018-03-22T12:43:29Z</time>
      </trkpt>
      <trkpt lat="46.61447" lon="-1.85545">
        <ele>11</ele>
        <time>2018-03-22T12:44:29Z</time>
      </trkpt>
      <trkpt lat="46.6147" lon="-1.85616">
        <ele>10</ele>
        <time>2018-03-22T12:45:29Z</time>
      </trkpt>
      <trkpt lat="46.61486" lon="-1.85682">
        <ele>9</ele>
        <time>2018-03-22T12:46:29Z</time>
      </trkpt>
      <trkpt lat="46.61494" lon="-1.85744">
        <ele>8</ele>
        <time>2018-03-22T12:47:29Z</time>
      </trkpt>
      <trkpt lat="46.61498" lon="-1.8576">
        <ele>8</ele>
        <time>2018-03-22T12:48:29Z</time>
      </trkpt>
      <trkpt lat="46.61503" lon="-1.85769">
        <ele>8</ele>
        <time>2018-03-22T12:49:29Z</time>
      </trkpt>
      <trkpt lat="46.61507" lon="-1.85772">
        <ele>8</ele>
        <time>2018-03-22T12:50:29Z</time>
      </trkpt>
      <trkpt lat="46.61512" lon="-1.85784">
        <ele>8</ele>
        <time>2018-03-22T12:51:29Z</time>
      </trkpt>
      <trkpt lat="46.61513" lon="-1.85791">
        <ele>7</ele>
        <time>2018-03-22T12:52:29Z</time>
      </trkpt>
      <trkpt lat="46.61525" lon="-1.85815">
        <ele>7</ele>
        <time>2018-03-22T12:53:29Z</time>
      </trkpt>
      <trkpt lat="46.61543" lon="-1.85843">
        <ele>7</ele>
        <time>2018-03-22T12:54:29Z</time>
      </trkpt>
      <trkpt lat="46.61577" lon="-1.85913">
        <ele>7</ele>
        <time>2018-03-22T12:55:29Z</time>
      </trkpt>
      <trkpt lat="46.61593" lon="-1.85936">
        <ele>7</ele>
        <time>2018-03-22T12:56:29Z</time>
      </trkpt>
      <trkpt lat="46.61593" lon="-1.85936">
        <ele>7</ele>
        <time>2018-03-22T12:57:29Z</time>
      </trkpt>
      <trkpt lat="46.6167" lon="-1.86041">
        <ele>8</ele>
        <time>2018-03-22T12:58:29Z</time>
      </trkpt>
      <trkpt lat="46.61701" lon="-1.86092">
        <ele>8</ele>
        <time>2018-03-22T12:59:29Z</time>
      </trkpt>
      <trkpt lat="46.61735" lon="-1.86155">
        <ele>8</ele>
        <time>2018-03-22T13:00:29Z</time>
      </trkpt>
      <trkpt lat="46.61756" lon="-1.86201">
        <ele>8</ele>
        <time>2018-03-22T13:01:29Z</time>
      </trkpt>
      <trkpt lat="46.61759" lon="-1.8621">
        <ele>8</ele>
        <time>2018-03-22T13:02:29Z</time>
      </trkpt>
      <trkpt lat="46.61763" lon="-1.86232">
        <ele>8</ele>
        <time>2018-03-22T13:03:29Z</time>
      </trkpt>
      <trkpt lat="46.61767" lon="-1.86306">
        <ele>8</ele>
        <time>2018-03-22T13:04:29Z</time>
      </trkpt>
      <trkpt lat="46.61763" lon="-1.86335">
        <ele>8</ele>
        <time>2018-03-22T13:05:29Z</time>
      </trkpt>
      <trkpt lat="46.61756" lon="-1.8635">
        <ele>8</ele>
        <time>2018-03-22T13:06:29Z</time>
      </trkpt>
      <trkpt lat="46.61746" lon="-1.86361">
        <ele>8</ele>
        <time>2018-03-22T13:07:29Z</time>
      </trkpt>
      <trkpt lat="46.61704" lon="-1.86391">
        <ele>9</ele>
        <time>2018-03-22T13:08:29Z</time>
      </trkpt>
      <trkpt lat="46.61677" lon="-1.86407">
        <ele>9</ele>
        <time>2018-03-22T13:09:29Z</time>
      </trkpt>
      <trkpt lat="46.61652" lon="-1.86427">
        <ele>8</ele>
        <time>2018-03-22T13:10:29Z</time>
      </trkpt>
      <trkpt lat="46.61641" lon="-1.86445">
        <ele>8</ele>
        <time>2018-03-22T13:11:29Z</time>
      </trkpt>
      <trkpt lat="46.61637" lon="-1.86466">
        <ele>7</ele>
        <time>2018-03-22T13:12:29Z</time>
      </trkpt>
      <trkpt lat="46.61626" lon="-1.86625">
        <ele>5</ele>
        <time>2018-03-22T13:13:29Z</time>
      </trkpt>
      <trkpt lat="46.61624" lon="-1.86664">
        <ele>4</ele>
        <time>2018-03-22T13:14:29Z</time>
      </trkpt>
      <trkpt lat="46.61625" lon="-1.86675">
        <ele>4</ele>
        <time>2018-03-22T13:15:29Z</time>
      </trkpt>
      <trkpt lat="46.61641" lon="-1.86773">
        <ele>4</ele>
        <time>2018-03-22T13:16:29Z</time>
      </trkpt>
      <trkpt lat="46.61661" lon="-1.86873">
        <ele>4</ele>
        <time>2018-03-22T13:17:29Z</time>
      </trkpt>
      <trkpt lat="46.61678" lon="-1.86922">
        <ele>5</ele>
        <time>2018-03-22T13:18:29Z</time>
      </trkpt>
      <trkpt lat="46.61678" lon="-1.86922">
        <ele>5</ele>
        <time>2018-03-22T13:19:29Z</time>
      </trkpt>
      <trkpt lat="46.617" lon="-1.8696">
        <ele>5</ele>
        <time>2018-03-22T13:20:29Z</time>
      </trkpt>
      <trkpt lat="46.61713" lon="-1.86977">
        <ele>5</ele>
        <time>2018-03-22T13:21:29Z</time>
      </trkpt>
      <trkpt lat="46.61844" lon="-1.871">
        <ele>6</ele>
        <time>2018-03-22T13:22:29Z</time>
      </trkpt>
      <trkpt lat="46.61893" lon="-1.87144">
        <ele>6</ele>
        <time>2018-03-22T13:23:29Z</time>
      </trkpt>
      <trkpt lat="46.619" lon="-1.87146">
        <ele>7</ele>
        <time>2018-03-22T13:24:29Z</time>
      </trkpt>
      <trkpt lat="46.61906" lon="-1.87139">
        <ele>7</ele>
        <time>2018-03-22T13:25:29Z</time>
      </trkpt>
      <trkpt lat="46.61913" lon="-1.87142">
        <ele>7</ele>
        <time>2018-03-22T13:26:29Z</time>
      </trkpt>
      <trkpt lat="46.61915" lon="-1.87146">
        <ele>7</ele>
        <time>2018-03-22T13:27:29Z</time>
      </trkpt>
      <trkpt lat="46.61915" lon="-1.87157">
        <ele>7</ele>
        <time>2018-03-22T13:28:29Z</time>
      </trkpt>
      <trkpt lat="46.61913" lon="-1.87161">
        <ele>7</ele>
        <time>2018-03-22T13:29:29Z</time>
      </trkpt>
      <trkpt lat="46.61906" lon="-1.87163">
        <ele>7</ele>
        <time>2018-03-22T13:30:29Z</time>
      </trkpt>
      <trkpt lat="46.61904" lon="-1.87172">
        <ele>6</ele>
        <time>2018-03-22T13:31:29Z</time>
      </trkpt>
      <trkpt lat="46.61916" lon="-1.87181">
        <ele>6</ele>
        <time>2018-03-22T13:32:29Z</time>
      </trkpt>
      <trkpt lat="46.61996" lon="-1.87229">
        <ele>6</ele>
        <time>2018-03-22T13:33:29Z</time>
      </trkpt>
      <trkpt lat="46.62004" lon="-1.87231">
        <ele>6</ele>
        <time>2018-03-22T13:34:29Z</time>
      </trkpt>
      <trkpt lat="46.62023" lon="-1.87241">
        <ele>6</ele>
        <time>2018-03-22T13:35:29Z</time>
      </trkpt>
      <trkpt lat="46.62045" lon="-1.87249">
        <ele>6</ele>
        <time>2018-03-22T13:36:29Z</time>
      </trkpt>
      <trkpt lat="46.62054" lon="-1.87249">
        <ele>6</ele>
        <time>2018-03-22T13:37:29Z</time>
      </trkpt>
      <trkpt lat="46.62071" lon="-1.87242">
        <ele>6</ele>
        <time>2018-03-22T13:38:29Z</time>
      </trkpt>
      <trkpt lat="46.6209" lon="-1.87229">
        <ele>6</ele>
        <time>2018-03-22T13:39:29Z</time>
      </trkpt>
      <trkpt lat="46.62118" lon="-1.87217">
        <ele>7</ele>
        <time>2018-03-22T13:40:29Z</time>
      </trkpt>
      <trkpt lat="46.62138" lon="-1.87216">
        <ele>8</ele>
        <time>2018-03-22T13:41:29Z</time>
      </trkpt>
      <trkpt lat="46.62174" lon="-1.87235">
        <ele>8</ele>
        <time>2018-03-22T13:42:29Z</time>
      </trkpt>
      <trkpt lat="46.62177" lon="-1.87229">
        <ele>8</ele>
        <time>2018-03-22T13:43:29Z</time>
      </trkpt>
      <trkpt lat="46.62182" lon="-1.87231">
        <ele>8</ele>
        <time>2018-03-22T13:44:29Z</time>
      </trkpt>
      <trkpt lat="46.6227" lon="-1.87293">
        <ele>6</ele>
        <time>2018-03-22T13:45:29Z</time>
      </trkpt>
      <trkpt lat="46.62326" lon="-1.87325">
        <ele>8</ele>
        <time>2018-03-22T13:46:29Z</time>
      </trkpt>
      <trkpt lat="46.62402" lon="-1.87354">
        <ele>7</ele>
        <time>2018-03-22T13:47:29Z</time>
      </trkpt>
      <trkpt lat="46.62454" lon="-1.87365">
        <ele>7</ele>
        <time>2018-03-22T13:48:29Z</time>
      </trkpt>
      <trkpt lat="46.62502" lon="-1.8736">
        <ele>7</ele>
        <time>2018-03-22T13:49:29Z</time>
      </trkpt>
      <trkpt lat="46.62562" lon="-1.87369">
        <ele>7</ele>
        <time>2018-03-22T13:50:29Z</time>
      </trkpt>
      <trkpt lat="46.62613" lon="-1.87352">
        <ele>7</ele>
        <time>2018-03-22T13:51:29Z</time>
      </trkpt>
      <trkpt lat="46.62615" lon="-1.87343">
        <ele>7</ele>
        <time>2018-03-22T13:52:29Z</time>
      </trkpt>
      <trkpt lat="46.62622" lon="-1.87341">
        <ele>7</ele>
        <time>2018-03-22T13:53:29Z</time>
      </trkpt>
      <trkpt lat="46.62627" lon="-1.87347">
        <ele>7</ele>
        <time>2018-03-22T13:54:29Z</time>
      </trkpt>
      <trkpt lat="46.62626" lon="-1.87356">
        <ele>7</ele>
        <time>2018-03-22T13:55:29Z</time>
      </trkpt>
      <trkpt lat="46.62674" lon="-1.87372">
        <ele>7</ele>
        <time>2018-03-22T13:56:29Z</time>
      </trkpt>
      <trkpt lat="46.62681" lon="-1.87379">
        <ele>7</ele>
        <time>2018-03-22T13:57:29Z</time>
      </trkpt>
      <trkpt lat="46.62713" lon="-1.87424">
        <ele>8</ele>
        <time>2018-03-22T13:58:29Z</time>
      </trkpt>
      <trkpt lat="46.62738" lon="-1.87441">
        <ele>8</ele>
        <time>2018-03-22T13:59:29Z</time>
      </trkpt>
      <trkpt lat="46.62802" lon="-1.87478">
        <ele>9</ele>
        <time>2018-03-22T14:00:29Z</time>
      </trkpt>
      <trkpt lat="46.62837" lon="-1.87504">
        <ele>9</ele>
        <time>2018-03-22T14:01:29Z</time>
      </trkpt>
      <trkpt lat="46.62858" lon="-1.8753">
        <ele>8</ele>
        <time>2018-03-22T14:02:29Z</time>
      </trkpt>
      <trkpt lat="46.62858" lon="-1.8753">
        <ele>8</ele>
        <time>2018-03-22T14:03:29Z</time>
      </trkpt>
      <trkpt lat="46.62895" lon="-1.87599">
        <ele>8</ele>
        <time>2018-03-22T14:04:29Z</time>
      </trkpt>
      <trkpt lat="46.62992" lon="-1.87771">
        <ele>10</ele>
        <time>2018-03-22T14:05:29Z</time>
      </trkpt>
      <trkpt lat="46.63047" lon="-1.87955">
        <ele>10</ele>
        <time>2018-03-22T14:06:29Z</time>
      </trkpt>
      <trkpt lat="46.63072" lon="-1.88003">
        <ele>11</ele>
        <time>2018-03-22T14:07:29Z</time>
      </trkpt>
      <trkpt lat="46.63118" lon="-1.88074">
        <ele>9</ele>
        <time>2018-03-22T14:08:29Z</time>
      </trkpt>
      <trkpt lat="46.63146" lon="-1.88128">
        <ele>9</ele>
        <time>2018-03-22T14:09:29Z</time>
      </trkpt>
      <trkpt lat="46.6316" lon="-1.88204">
        <ele>8</ele>
        <time>2018-03-22T14:10:29Z</time>
      </trkpt>
      <trkpt lat="46.63195" lon="-1.88438">
        <ele>6</ele>
        <time>2018-03-22T14:11:29Z</time>
      </trkpt>
      <trkpt lat="46.63206" lon="-1.88468">
        <ele>5</ele>
        <time>2018-03-22T14:12:29Z</time>
      </trkpt>
      <trkpt lat="46.633" lon="-1.88644">
        <ele>6</ele>
        <time>2018-03-22T14:13:29Z</time>
      </trkpt>
      <trkpt lat="46.63313" lon="-1.88664">
        <ele>6</ele>
        <time>2018-03-22T14:14:29Z</time>
      </trkpt>
      <trkpt lat="46.63329" lon="-1.88684">
        <ele>6</ele>
        <time>2018-03-22T14:15:29Z</time>
      </trkpt>
      <trkpt lat="46.63391" lon="-1.88741">
        <ele>7</ele>
        <time>2018-03-22T14:16:29Z</time>
      </trkpt>
      <trkpt lat="46.63405" lon="-1.88758">
        <ele>7</ele>
        <time>2018-03-22T14:17:29Z</time>
      </trkpt>
      <trkpt lat="46.63417" lon="-1.8878">
        <ele>7</ele>
        <time>2018-03-22T14:18:29Z</time>
      </trkpt>
      <trkpt lat="46.63523" lon="-1.89031">
        <ele>6</ele>
        <time>2018-03-22T14:19:29Z</time>
      </trkpt>
      <trkpt lat="46.63531" lon="-1.89049">
        <ele>6</ele>
        <time>2018-03-22T14:20:29Z</time>
      </trkpt>
      <trkpt lat="46.63543" lon="-1.89064">
        <ele>6</ele>
        <time>2018-03-22T14:21:29Z</time>
      </trkpt>
      <trkpt lat="46.63554" lon="-1.89073">
        <ele>7</ele>
        <time>2018-03-22T14:22:29Z</time>
      </trkpt>
      <trkpt lat="46.63686" lon="-1.89166">
        <ele>8</ele>
        <time>2018-03-22T14:23:29Z</time>
      </trkpt>
      <trkpt lat="46.63788" lon="-1.89241">
        <ele>8</ele>
        <time>2018-03-22T14:24:29Z</time>
      </trkpt>
      <trkpt lat="46.63801" lon="-1.89254">
        <ele>7</ele>
        <time>2018-03-22T14:25:29Z</time>
      </trkpt>
      <trkpt lat="46.63918" lon="-1.8942">
        <ele>5</ele>
        <time>2018-03-22T14:26:29Z</time>
      </trkpt>
      <trkpt lat="46.63925" lon="-1.89427">
        <ele>5</ele>
        <time>2018-03-22T14:27:29Z</time>
      </trkpt>
      <trkpt lat="46.63933" lon="-1.89428">
        <ele>5</ele>
        <time>2018-03-22T14:28:29Z</time>
      </trkpt>
      <trkpt lat="46.63995" lon="-1.89423">
        <ele>7</ele>
        <time>2018-03-22T14:29:29Z</time>
      </trkpt>
      <trkpt lat="46.6401" lon="-1.89416">
        <ele>7</ele>
        <time>2018-03-22T14:30:29Z</time>
      </trkpt>
      <trkpt lat="46.64037" lon="-1.89358">
        <ele>9</ele>
        <time>2018-03-22T14:31:29Z</time>
      </trkpt>
      <trkpt lat="46.64045" lon="-1.89333">
        <ele>10</ele>
        <time>2018-03-22T14:32:29Z</time>
      </trkpt>
      <trkpt lat="46.64045" lon="-1.89333">
        <ele>10</ele>
        <time>2018-03-22T14:33:29Z</time>
      </trkpt>
      <trkpt lat="46.64055" lon="-1.893">
        <ele>10</ele>
        <time>2018-03-22T14:34:29Z</time>
      </trkpt>
      <trkpt lat="46.64097" lon="-1.89225">
        <ele>12</ele>
        <time>2018-03-22T14:35:29Z</time>
      </trkpt>
      <trkpt lat="46.64123" lon="-1.89167">
        <ele>12</ele>
        <time>2018-03-22T14:36:29Z</time>
      </trkpt>
      <trkpt lat="46.64132" lon="-1.89154">
        <ele>13</ele>
        <time>2018-03-22T14:37:29Z</time>
      </trkpt>
      <trkpt lat="46.64172" lon="-1.89116">
        <ele>13</ele>
        <time>2018-03-22T14:38:29Z</time>
      </trkpt>
      <trkpt lat="46.64202" lon="-1.89093">
        <ele>14</ele>
        <time>2018-03-22T14:39:29Z</time>
      </trkpt>
      <trkpt lat="46.6421" lon="-1.89078">
        <ele>14</ele>
        <time>2018-03-22T14:40:29Z</time>
      </trkpt>
      <trkpt lat="46.64219" lon="-1.89051">
        <ele>14</ele>
        <time>2018-03-22T14:41:29Z</time>
      </trkpt>
      <trkpt lat="46.64223" lon="-1.89047">
        <ele>14</ele>
        <time>2018-03-22T14:42:29Z</time>
      </trkpt>
      <trkpt lat="46.64275" lon="-1.89049">
        <ele>15</ele>
        <time>2018-03-22T14:43:29Z</time>
      </trkpt>
      <trkpt lat="46.64414" lon="-1.89029">
        <ele>16</ele>
        <time>2018-03-22T14:44:29Z</time>
      </trkpt>
      <trkpt lat="46.64447" lon="-1.89027">
        <ele>16</ele>
        <time>2018-03-22T14:45:29Z</time>
      </trkpt>
      <trkpt lat="46.64478" lon="-1.89028">
        <ele>16</ele>
        <time>2018-03-22T14:46:29Z</time>
      </trkpt>
      <trkpt lat="46.64519" lon="-1.89037">
        <ele>16</ele>
        <time>2018-03-22T14:47:29Z</time>
      </trkpt>
      <trkpt lat="46.64569" lon="-1.8903">
        <ele>16</ele>
        <time>2018-03-22T14:48:29Z</time>
      </trkpt>
      <trkpt lat="46.64585" lon="-1.89024">
        <ele>16</ele>
        <time>2018-03-22T14:49:29Z</time>
      </trkpt>
      <trkpt lat="46.64591" lon="-1.8902">
        <ele>16</ele>
        <time>2018-03-22T14:50:29Z</time>
      </trkpt>
      <trkpt lat="46.6459" lon="-1.89013">
        <ele>15</ele>
        <time>2018-03-22T14:51:29Z</time>
      </trkpt>
      <trkpt lat="46.6459" lon="-1.89006">
        <ele>15</ele>
        <time>2018-03-22T14:52:29Z</time>
      </trkpt>
      <trkpt lat="46.64593" lon="-1.89">
        <ele>15</ele>
        <time>2018-03-22T14:53:29Z</time>
      </trkpt>
      <trkpt lat="46.64597" lon="-1.88997">
        <ele>15</ele>
        <time>2018-03-22T14:54:29Z</time>
      </trkpt>
      <trkpt lat="46.64602" lon="-1.88998">
        <ele>15</ele>
        <time>2018-03-22T14:55:29Z</time>
      </trkpt>
      <trkpt lat="46.64604" lon="-1.88999">
        <ele>15</ele>
        <time>2018-03-22T14:56:29Z</time>
      </trkpt>
      <trkpt lat="46.64608" lon="-1.89006">
        <ele>15</ele>
        <time>2018-03-22T14:57:29Z</time>
      </trkpt>
      <trkpt lat="46.64609" lon="-1.89011">
        <ele>16</ele>
        <time>2018-03-22T14:58:29Z</time>
      </trkpt>
      <trkpt lat="46.64614" lon="-1.89018">
        <ele>16</ele>
        <time>2018-03-22T14:59:29Z</time>
      </trkpt>
      <trkpt lat="46.64639" lon="-1.89038">
        <ele>16</ele>
        <time>2018-03-22T15:00:29Z</time>
      </trkpt>
      <trkpt lat="46.64717" lon="-1.89082">
        <ele>18</ele>
        <time>2018-03-22T15:01:29Z</time>
      </trkpt>
      <trkpt lat="46.64816" lon="-1.89133">
        <ele>17</ele>
        <time>2018-03-22T15:02:29Z</time>
      </trkpt>
      <trkpt lat="46.6491" lon="-1.89185">
        <ele>15</ele>
        <time>2018-03-22T15:03:29Z</time>
      </trkpt>
      <trkpt lat="46.6491" lon="-1.89185">
        <ele>15</ele>
        <time>2018-03-22T15:04:29Z</time>
      </trkpt>
      <trkpt lat="46.65003" lon="-1.89234">
        <ele>14</ele>
        <time>2018-03-22T15:05:29Z</time>
      </trkpt>
      <trkpt lat="46.65207" lon="-1.89346">
        <ele>8</ele>
        <time>2018-03-22T15:06:29Z</time>
      </trkpt>
      <trkpt lat="46.65225" lon="-1.89359">
        <ele>7</ele>
        <time>2018-03-22T15:07:29Z</time>
      </trkpt>
      <trkpt lat="46.6527" lon="-1.89399">
        <ele>6</ele>
        <time>2018-03-22T15:08:29Z</time>
      </trkpt>
      <trkpt lat="46.65368" lon="-1.89503">
        <ele>6</ele>
        <time>2018-03-22T15:09:29Z</time>
      </trkpt>
      <trkpt lat="46.65461" lon="-1.89586">
        <ele>8</ele>
        <time>2018-03-22T15:10:29Z</time>
      </trkpt>
      <trkpt lat="46.65555" lon="-1.89654">
        <ele>7</ele>
        <time>2018-03-22T15:11:29Z</time>
      </trkpt>
      <trkpt lat="46.66202" lon="-1.90066">
        <ele>3</ele>
        <time>2018-03-22T15:12:29Z</time>
      </trkpt>
      <trkpt lat="46.66245" lon="-1.90089">
        <ele>2</ele>
        <time>2018-03-22T15:13:29Z</time>
      </trkpt>
      <trkpt lat="46.66281" lon="-1.901">
        <ele>1</ele>
        <time>2018-03-22T15:14:29Z</time>
      </trkpt>
      <trkpt lat="46.66751" lon="-1.90212">
        <ele>5</ele>
        <time>2018-03-22T15:15:29Z</time>
      </trkpt>
      <trkpt lat="46.66752" lon="-1.90206">
        <ele>6</ele>
        <time>2018-03-22T15:16:29Z</time>
      </trkpt>
      <trkpt lat="46.6676" lon="-1.90189">
        <ele>6</ele>
        <time>2018-03-22T15:17:29Z</time>
      </trkpt>
      <trkpt lat="46.66772" lon="-1.90204">
        <ele>6</ele>
        <time>2018-03-22T15:18:29Z</time>
      </trkpt>
      <trkpt lat="46.66796" lon="-1.9021">
        <ele>5</ele>
        <time>2018-03-22T15:19:29Z</time>
      </trkpt>
      <trkpt lat="46.66804" lon="-1.90205">
        <ele>6</ele>
        <time>2018-03-22T15:20:29Z</time>
      </trkpt>
      <trkpt lat="46.66808" lon="-1.90205">
        <ele>6</ele>
        <time>2018-03-22T15:21:29Z</time>
      </trkpt>
      <trkpt lat="46.66858" lon="-1.9022">
        <ele>5</ele>
        <time>2018-03-22T15:22:29Z</time>
      </trkpt>
      <trkpt lat="46.66957" lon="-1.90281">
        <ele>6</ele>
        <time>2018-03-22T15:23:29Z</time>
      </trkpt>
      <trkpt lat="46.66976" lon="-1.90306">
        <ele>6</ele>
        <time>2018-03-22T15:24:29Z</time>
      </trkpt>
      <trkpt lat="46.66983" lon="-1.90304">
        <ele>6</ele>
        <time>2018-03-22T15:25:29Z</time>
      </trkpt>
      <trkpt lat="46.66991" lon="-1.90306">
        <ele>6</ele>
        <time>2018-03-22T15:26:29Z</time>
      </trkpt>
      <trkpt lat="46.66998" lon="-1.90313">
        <ele>6</ele>
        <time>2018-03-22T15:27:29Z</time>
      </trkpt>
      <trkpt lat="46.67002" lon="-1.90323">
        <ele>6</ele>
        <time>2018-03-22T15:28:29Z</time>
      </trkpt>
      <trkpt lat="46.67002" lon="-1.9034">
        <ele>6</ele>
        <time>2018-03-22T15:29:29Z</time>
      </trkpt>
      <trkpt lat="46.66998" lon="-1.9035">
        <ele>6</ele>
        <time>2018-03-22T15:30:29Z</time>
      </trkpt>
      <trkpt lat="46.67004" lon="-1.90377">
        <ele>6</ele>
        <time>2018-03-22T15:31:29Z</time>
      </trkpt>
      <trkpt lat="46.67011" lon="-1.90391">
        <ele>5</ele>
        <time>2018-03-22T15:32:29Z</time>
      </trkpt>
      <trkpt lat="46.67058" lon="-1.9045">
        <ele>5</ele>
        <time>2018-03-22T15:33:29Z</time>
      </trkpt>
      <trkpt lat="46.67089" lon="-1.90499">
        <ele>5</ele>
        <time>2018-03-22T15:34:29Z</time>
      </trkpt>
      <trkpt lat="46.67116" lon="-1.90534">
        <ele>5</ele>
        <time>2018-03-22T15:35:29Z</time>
      </trkpt>
      <trkpt lat="46.67311" lon="-1.9081">
        <ele>2</ele>
        <time>2018-03-22T15:36:29Z</time>
      </trkpt>
      <trkpt lat="46.67342" lon="-1.9085">
        <ele>2</ele>
        <time>2018-03-22T15:37:29Z</time>
      </trkpt>
      <trkpt lat="46.67354" lon="-1.90864">
        <ele>2</ele>
        <time>2018-03-22T15:38:29Z</time>
      </trkpt>
      <trkpt lat="46.67399" lon="-1.90901">
        <ele>3</ele>
        <time>2018-03-22T15:39:29Z</time>
      </trkpt>
      <trkpt lat="46.67421" lon="-1.90912">
        <ele>3</ele>
        <time>2018-03-22T15:40:29Z</time>
      </trkpt>
      <trkpt lat="46.67429" lon="-1.90912">
        <ele>3</ele>
        <time>2018-03-22T15:41:29Z</time>
      </trkpt>
      <trkpt lat="46.67437" lon="-1.90909">
        <ele>3</ele>
        <time>2018-03-22T15:42:29Z</time>
      </trkpt>
      <trkpt lat="46.67446" lon="-1.90912">
        <ele>3</ele>
        <time>2018-03-22T15:43:29Z</time>
      </trkpt>
      <trkpt lat="46.67454" lon="-1.90919">
        <ele>3</ele>
        <time>2018-03-22T15:44:29Z</time>
      </trkpt>
      <trkpt lat="46.67459" lon="-1.90931">
        <ele>4</ele>
        <time>2018-03-22T15:45:29Z</time>
      </trkpt>
      <trkpt lat="46.6746" lon="-1.90947">
        <ele>4</ele>
        <time>2018-03-22T15:46:29Z</time>
      </trkpt>
      <trkpt lat="46.67456" lon="-1.9096">
        <ele>4</ele>
        <time>2018-03-22T15:47:29Z</time>
      </trkpt>
      <trkpt lat="46.67449" lon="-1.9097">
        <ele>4</ele>
        <time>2018-03-22T15:48:29Z</time>
      </trkpt>
      <trkpt lat="46.6745" lon="-1.91001">
        <ele>4</ele>
        <time>2018-03-22T15:49:29Z</time>
      </trkpt>
      <trkpt lat="46.67454" lon="-1.91009">
        <ele>4</ele>
        <time>2018-03-22T15:50:29Z</time>
      </trkpt>
      <trkpt lat="46.67541" lon="-1.91133">
        <ele>5</ele>
        <time>2018-03-22T15:51:29Z</time>
      </trkpt>
      <trkpt lat="46.67541" lon="-1.91133">
        <ele>5</ele>
        <time>2018-03-22T15:52:29Z</time>
      </trkpt>
      <trkpt lat="46.68157" lon="-1.92004">
        <ele>8</ele>
        <time>2018-03-22T15:53:29Z</time>
      </trkpt>
      <trkpt lat="46.68253" lon="-1.92142">
        <ele>7</ele>
        <time>2018-03-22T15:54:29Z</time>
      </trkpt>
      <trkpt lat="46.68304" lon="-1.92221">
        <ele>9</ele>
        <time>2018-03-22T15:55:29Z</time>
      </trkpt>
      <trkpt lat="46.68387" lon="-1.92365">
        <ele>10</ele>
        <time>2018-03-22T15:56:29Z</time>
      </trkpt>
      <trkpt lat="46.68401" lon="-1.92386">
        <ele>10</ele>
        <time>2018-03-22T15:57:29Z</time>
      </trkpt>
      <trkpt lat="46.68415" lon="-1.92395">
        <ele>10</ele>
        <time>2018-03-22T15:58:29Z</time>
      </trkpt>
      <trkpt lat="46.68452" lon="-1.92402">
        <ele>10</ele>
        <time>2018-03-22T15:59:29Z</time>
      </trkpt>
      <trkpt lat="46.68477" lon="-1.92411">
        <ele>10</ele>
        <time>2018-03-22T16:00:29Z</time>
      </trkpt>
      <trkpt lat="46.68495" lon="-1.92421">
        <ele>10</ele>
        <time>2018-03-22T16:01:29Z</time>
      </trkpt>
      <trkpt lat="46.68533" lon="-1.92462">
        <ele>10</ele>
        <time>2018-03-22T16:02:29Z</time>
      </trkpt>
      <trkpt lat="46.68626" lon="-1.92579">
        <ele>10</ele>
        <time>2018-03-22T16:03:29Z</time>
      </trkpt>
      <trkpt lat="46.68666" lon="-1.92613">
        <ele>10</ele>
        <time>2018-03-22T16:04:29Z</time>
      </trkpt>
      <trkpt lat="46.68733" lon="-1.92655">
        <ele>8</ele>
        <time>2018-03-22T16:05:29Z</time>
      </trkpt>
      <trkpt lat="46.68774" lon="-1.92675">
        <ele>8</ele>
        <time>2018-03-22T16:06:29Z</time>
      </trkpt>
      <trkpt lat="46.68817" lon="-1.92693">
        <ele>7</ele>
        <time>2018-03-22T16:07:29Z</time>
      </trkpt>
      <trkpt lat="46.68818" lon="-1.9269">
        <ele>7</ele>
        <time>2018-03-22T16:08:29Z</time>
      </trkpt>
      <trkpt lat="46.68824" lon="-1.92688">
        <ele>7</ele>
        <time>2018-03-22T16:09:29Z</time>
      </trkpt>
      <trkpt lat="46.68839" lon="-1.92689">
        <ele>7</ele>
        <time>2018-03-22T16:10:29Z</time>
      </trkpt>
      <trkpt lat="46.6884" lon="-1.92686">
        <ele>7</ele>
        <time>2018-03-22T16:11:29Z</time>
      </trkpt>
      <trkpt lat="46.68847" lon="-1.92683">
        <ele>6</ele>
        <time>2018-03-22T16:12:29Z</time>
      </trkpt>
      <trkpt lat="46.68852" lon="-1.92689">
        <ele>6</ele>
        <time>2018-03-22T16:13:29Z</time>
      </trkpt>
      <trkpt lat="46.68851" lon="-1.92699">
        <ele>6</ele>
        <time>2018-03-22T16:14:29Z</time>
      </trkpt>
      <trkpt lat="46.68924" lon="-1.92732">
        <ele>4</ele>
        <time>2018-03-22T16:15:29Z</time>
      </trkpt>
      <trkpt lat="46.68951" lon="-1.92754">
        <ele>4</ele>
        <time>2018-03-22T16:16:29Z</time>
      </trkpt>
      <trkpt lat="46.69068" lon="-1.92911">
        <ele>4</ele>
        <time>2018-03-22T16:17:29Z</time>
      </trkpt>
      <trkpt lat="46.69119" lon="-1.92964">
        <ele>4</ele>
        <time>2018-03-22T16:18:29Z</time>
      </trkpt>
      <trkpt lat="46.69223" lon="-1.93056">
        <ele>5</ele>
        <time>2018-03-22T16:19:29Z</time>
      </trkpt>
      <trkpt lat="46.69313" lon="-1.93139">
        <ele>5</ele>
        <time>2018-03-22T16:20:29Z</time>
      </trkpt>
      <trkpt lat="46.69335" lon="-1.93175">
        <ele>5</ele>
        <time>2018-03-22T16:21:29Z</time>
      </trkpt>
      <trkpt lat="46.69346" lon="-1.93199">
        <ele>5</ele>
        <time>2018-03-22T16:22:29Z</time>
      </trkpt>
      <trkpt lat="46.69368" lon="-1.93269">
        <ele>4</ele>
        <time>2018-03-22T16:23:29Z</time>
      </trkpt>
      <trkpt lat="46.69374" lon="-1.93297">
        <ele>4</ele>
        <time>2018-03-22T16:24:29Z</time>
      </trkpt>
      <trkpt lat="46.69379" lon="-1.93308">
        <ele>4</ele>
        <time>2018-03-22T16:25:29Z</time>
      </trkpt>
      <trkpt lat="46.69385" lon="-1.93317">
        <ele>4</ele>
        <time>2018-03-22T16:26:29Z</time>
      </trkpt>
      <trkpt lat="46.69391" lon="-1.93319">
        <ele>4</ele>
        <time>2018-03-22T16:27:29Z</time>
      </trkpt>
      <trkpt lat="46.69394" lon="-1.9333">
        <ele>4</ele>
        <time>2018-03-22T16:28:29Z</time>
      </trkpt>
      <trkpt lat="46.69405" lon="-1.93329">
        <ele>4</ele>
        <time>2018-03-22T16:29:29Z</time>
      </trkpt>
      <trkpt lat="46.6941" lon="-1.93331">
        <ele>4</ele>
        <time>2018-03-22T16:30:29Z</time>
      </trkpt>
      <trkpt lat="46.69524" lon="-1.93381">
        <ele>4</ele>
        <time>2018-03-22T16:31:29Z</time>
      </trkpt>
      <trkpt lat="46.69524" lon="-1.93381">
        <ele>4</ele>
        <time>2018-03-22T16:32:29Z</time>
      </trkpt>
      <trkpt lat="46.69588" lon="-1.93407">
        <ele>4</ele>
        <time>2018-03-22T16:33:29Z</time>
      </trkpt>
      <trkpt lat="46.69617" lon="-1.93422">
        <ele>4</ele>
        <time>2018-03-22T16:34:29Z</time>
      </trkpt>
      <trkpt lat="46.69619" lon="-1.93416">
        <ele>4</ele>
        <time>2018-03-22T16:35:29Z</time>
      </trkpt>
      <trkpt lat="46.69624" lon="-1.93414">
        <ele>5</ele>
        <time>2018-03-22T16:36:29Z</time>
      </trkpt>
      <trkpt lat="46.69627" lon="-1.93415">
        <ele>5</ele>
        <time>2018-03-22T16:37:29Z</time>
      </trkpt>
      <trkpt lat="46.69631" lon="-1.93425">
        <ele>4</ele>
        <time>2018-03-22T16:38:29Z</time>
      </trkpt>
      <trkpt lat="46.69667" lon="-1.93431">
        <ele>5</ele>
        <time>2018-03-22T16:39:29Z</time>
      </trkpt>
      <trkpt lat="46.69684" lon="-1.93436">
        <ele>5</ele>
        <time>2018-03-22T16:40:29Z</time>
      </trkpt>
      <trkpt lat="46.69709" lon="-1.93437">
        <ele>5</ele>
        <time>2018-03-22T16:41:29Z</time>
      </trkpt>
      <trkpt lat="46.69777" lon="-1.93421">
        <ele>5</ele>
        <time>2018-03-22T16:42:29Z</time>
      </trkpt>
      <trkpt lat="46.69784" lon="-1.93422">
        <ele>5</ele>
        <time>2018-03-22T16:43:29Z</time>
      </trkpt>
      <trkpt lat="46.69787" lon="-1.93417">
        <ele>5</ele>
        <time>2018-03-22T16:44:29Z</time>
      </trkpt>
      <trkpt lat="46.69791" lon="-1.93418">
        <ele>5</ele>
        <time>2018-03-22T16:45:29Z</time>
      </trkpt>
      <trkpt lat="46.69793" lon="-1.9342">
        <ele>5</ele>
        <time>2018-03-22T16:46:29Z</time>
      </trkpt>
      <trkpt lat="46.69813" lon="-1.9341">
        <ele>5</ele>
        <time>2018-03-22T16:47:29Z</time>
      </trkpt>
      <trkpt lat="46.69865" lon="-1.93393">
        <ele>5</ele>
        <time>2018-03-22T16:48:29Z</time>
      </trkpt>
    </trkseg>
  </trk>
</gpx>